M I D A S
Marine Information and Data Acquisition System
Tripno 2152 of the Zeeleeuw from 2011-07-27 05:25:13 to 2011-07-27 15:18:30
Back to CruiseResearch ActivitiesStationsMapUnderway DataData graphs

EquipmentUnitsComment
TimeDGPSUTC
LatitudeDGPSDM.mWGS84
LongitudeDGPSDM.mWGS84
TemperatureSBE03/SBE38deg celciusITS90
ConductivitySBE21S/mITS90
SalinitySBE21 Practical Salinity Units
ChlorophylAChelsea fluorimeterg/lCalibrated in Aceton
Missing or incorrect values are displayed as -999
Sea surface data collected by the RV Zeeleeuw from 2011-07-27 05:26:57 to 2011-07-27 16:27:51
                                                                                    Next 1000 lines
Time Latitude Longitude Temperature Conductivity Salinity ChlorophylA
2011-07-27 05:27:07 51°13.634 2°56.013 20.573 0.055973 0.310155 -3.020363
2011-07-27 05:27:13 51°13.634 2°56.008 20.5438 0.055973 0.310155 -3.020363
2011-07-27 05:27:17 51°13.635 2°56.004 20.5689 0.055973 0.310143 -3.020363
2011-07-27 05:27:23 51°13.636 2°55.996 20.5793 0.056076 0.310718 -3.020363
2011-07-27 05:27:29 51°13.638 2°55.987 20.5858 0.055973 0.310121 -3.020363
2011-07-27 05:27:34 51°13.64 2°55.979 20.5922 0.055973 0.310116 -3.020363
2011-07-27 05:27:40 51°13.642 2°55.968 20.5711 0.055973 0.31011 -3.020363
2011-07-27 05:27:45 51°13.644 2°55.959 20.5878 0.055973 0.31011 -3.020363
2011-07-27 05:27:51 51°13.646 2°55.947 20.593 0.055973 0.31011 -3.020363
2011-07-27 05:27:56 51°13.648 2°55.938 20.5873 0.055973 0.310104 -3.020363
2011-07-27 05:28:01 51°13.65 2°55.929 20.5858 0.055973 0.310104 -3.020363
2011-07-27 05:28:06 51°13.652 2°55.92 20.5798 0.055973 0.310104 -3.020363
2011-07-27 05:28:11 51°13.654 2°55.91 20.5862 0.056076 0.310685 -3.020363
2011-07-27 05:28:16 51°13.656 2°55.901 20.5837 0.056076 0.310685 -3.020363
2011-07-27 05:28:21 51°13.659 2°55.892 20.587 0.056076 0.310679 -3.020363
2011-07-27 05:28:26 51°13.661 2°55.882 20.5872 0.056076 0.310679 -3.020363
2011-07-27 05:28:31 51°13.664 2°55.873 20.5881 0.055973 0.310088 -3.020363
2011-07-27 05:28:36 51°13.667 2°55.864 20.5911 0.056076 0.310668 -3.020363
2011-07-27 05:28:42 51°13.671 2°55.853 20.5872 0.056076 0.310662 -3.020363
2011-07-27 05:28:46 51°13.673 2°55.845 20.5901 0.056076 0.310662 -3.020363
2011-07-27 05:28:51 51°13.676 2°55.836 20.5882 0.056076 0.310657 -3.020363
2011-07-27 05:28:56 51°13.68 2°55.827 20.5911 0.056076 0.310657 -3.020363
2011-07-27 05:29:01 51°13.684 2°55.819 20.5791 0.056076 0.310645 -3.020363
2011-07-27 05:29:06 51°13.688 2°55.811 20.5855 0.056076 0.310645 -3.020363
2011-07-27 05:29:11 51°13.692 2°55.803 20.5844 0.056076 0.31064 -3.020363
2011-07-27 05:29:16 51°13.696 2°55.794 20.5909 0.056076 0.31064 -3.020363
2011-07-27 05:29:21 51°13.7 2°55.787 20.5878 0.056076 0.310634 -3.020363
2011-07-27 05:29:26 51°13.704 2°55.779 20.5906 0.056076 0.310634 -3.020363
2011-07-27 05:29:31 51°13.709 2°55.771 20.5946 0.056076 0.310629 -3.020363
2011-07-27 05:29:36 51°13.713 2°55.763 20.589 0.056076 0.310623 -3.020363
2011-07-27 05:29:41 51°13.718 2°55.756 20.5896 0.056076 0.310623 -3.020363
2011-07-27 05:29:46 51°13.723 2°55.748 20.5914 0.056076 0.310623 -3.020363
2011-07-27 05:29:51 51°13.728 2°55.74 20.5912 0.056076 0.310617 -3.020363
2011-07-27 05:29:56 51°13.733 2°55.733 20.5861 0.056076 0.310612 -3.020363
2011-07-27 05:30:01 51°13.738 2°55.726 20.5847 0.056076 0.310612 -3.020363
2011-07-27 05:30:06 51°13.743 2°55.718 20.5932 0.056076 0.310606 -3.020363
2011-07-27 05:30:11 51°13.749 2°55.711 20.5855 0.056076 0.310601 -3.020363
2011-07-27 05:30:16 51°13.754 2°55.704 20.5879 0.056076 0.310601 -3.020363
2011-07-27 05:30:21 51°13.76 2°55.697 20.592 0.056076 0.310595 -3.020363
2011-07-27 05:30:26 51°13.766 2°55.69 20.5919 0.056076 0.310595 -3.020363
2011-07-27 05:30:31 51°13.771 2°55.683 20.5944 0.056076 0.310595 -3.020363
2011-07-27 05:30:36 51°13.777 2°55.677 20.5977 0.056076 0.31059 -3.020363
2011-07-27 05:30:42 51°13.785 2°55.669 20.6009 0.056076 0.31059 -3.020363
2011-07-27 05:30:47 51°13.791 2°55.663 20.5909 0.056076 0.31059 -3.020363
2011-07-27 05:30:51 51°13.796 2°55.659 20.5966 0.056076 0.310584 -3.020363
2011-07-27 05:30:57 51°13.803 2°55.652 20.5979 0.056076 0.310584 -3.020363
2011-07-27 05:31:02 51°13.81 2°55.647 20.5807 0.056076 0.310578 -3.020363
2011-07-27 05:31:06 51°13.815 2°55.644 20.5946 0.056076 0.310578 -3.020363
2011-07-27 05:31:11 51°13.822 2°55.64 20.5909 0.056076 0.310573 -3.020363
2011-07-27 05:31:16 51°13.829 2°55.636 20.5949 0.056076 0.310573 -3.020363
2011-07-27 05:31:21 51°13.836 2°55.633 20.5979 0.056076 0.310573 -3.020363
2011-07-27 05:31:26 51°13.843 2°55.63 20.5961 0.056076 0.310567 -3.020363
2011-07-27 05:31:31 51°13.851 2°55.628 20.5868 0.056076 0.310567 -3.020363
2011-07-27 05:31:36 51°13.858 2°55.626 20.6006 0.056076 0.310567 -3.020363
2011-07-27 05:31:41 51°13.866 2°55.625 20.5999 0.056076 0.310567 -3.020363
2011-07-27 05:31:46 51°13.873 2°55.624 20.599 0.056076 0.310567 -3.020363
2011-07-27 05:31:51 51°13.881 2°55.623 20.5986 0.056076 0.310562 -3.020363
2011-07-27 05:31:56 51°13.888 2°55.623 20.5933 0.056076 0.310562 -3.020363
2011-07-27 05:32:00 51°13.894 2°55.623 20.5912 0.056076 0.310562 -3.020363
2011-07-27 05:32:07 51°13.903 2°55.624 20.5937 0.056076 0.310556 -3.020363
2011-07-27 05:32:12 51°13.91 2°55.626 20.5905 0.056076 0.31055 -3.020363
2011-07-27 05:32:16 51°13.915 2°55.626 20.5984 0.056076 0.31055 -3.020363
2011-07-27 05:32:22 51°13.922 2°55.629 20.5853 0.056076 0.31055 -3.020363
2011-07-27 05:32:27 51°13.928 2°55.631 20.5887 0.056076 0.31055 -3.020363
2011-07-27 05:32:32 51°13.934 2°55.633 20.5937 0.056076 0.310545 -3.020363
2011-07-27 05:32:36 51°13.939 2°55.635 20.5995 0.056076 0.310545 -3.020363
2011-07-27 05:32:41 51°13.944 2°55.638 20.5896 0.056076 0.310539 -3.020363
2011-07-27 05:32:46 51°13.949 2°55.64 20.6028 0.056076 0.310539 -3.020363
2011-07-27 05:32:51 51°13.954 2°55.643 20.6071 0.056076 0.310539 -3.020363
2011-07-27 05:32:56 51°13.957 2°55.645 20.5995 0.056076 0.310534 -3.020363
2011-07-27 05:33:01 51°13.961 2°55.647 20.5873 0.056076 0.310534 -3.020363
2011-07-27 05:33:06 51°13.963 2°55.649 20.5888 0.056076 0.310534 -3.020363
2011-07-27 05:33:11 51°13.965 2°55.65 20.5899 0.056076 0.31055 -3.020363
2011-07-27 05:33:16 51°13.965 2°55.651 20.6095 0.056076 0.31055 -3.020363
2011-07-27 05:33:21 51°13.966 2°55.651 20.5871 0.056076 0.310567 -3.020363
2011-07-27 05:33:26 51°13.966 2°55.652 20.5887 0.056076 0.310578 -3.020363
2011-07-27 05:33:31 51°13.966 2°55.651 20.5946 0.056076 0.310578 -3.020363
2011-07-27 05:33:36 51°13.966 2°55.65 20.5872 0.056076 0.310573 -3.020363
2011-07-27 05:33:41 51°13.965 2°55.649 20.5809 0.056076 0.310556 -3.020363
2011-07-27 05:33:46 51°13.964 2°55.647 20.5771 0.056076 0.310556 -3.020363
2011-07-27 05:33:51 51°13.963 2°55.642 20.5213 0.056076 0.310528 -3.020363
2011-07-27 05:33:56 51°13.962 2°55.636 20.5128 0.056076 0.310495 -3.020363
2011-07-27 05:34:00 51°13.961 2°55.631 20.4744 0.056076 0.310472 -3.020363
2011-07-27 05:34:06 51°13.961 2°55.623 20.543 0.056076 0.310467 -3.020363
2011-07-27 05:34:11 51°13.961 2°55.616 20.5264 0.056076 0.310472 -3.020363
2011-07-27 05:34:16 51°13.962 2°55.609 20.5478 0.056076 0.310472 -3.020363
2011-07-27 05:34:21 51°13.963 2°55.602 20.5433 0.056076 0.310489 -3.020363
2011-07-27 05:34:26 51°13.965 2°55.595 20.5561 0.056076 0.310506 -3.020363
2011-07-27 05:34:31 51°13.968 2°55.587 20.5701 0.056076 0.310523 -3.020363
2011-07-27 05:34:36 51°13.971 2°55.581 20.584 0.056076 0.310534 -3.020363
2011-07-27 05:34:41 51°13.975 2°55.573 20.5946 0.056076 0.31055 -3.020363
2011-07-27 05:34:45 51°13.978 2°55.567 20.5943 0.056076 0.31055 -3.020363
2011-07-27 05:34:50 51°13.984 2°55.559 20.5969 0.056076 0.310545 -3.020363
2011-07-27 05:34:55 51°13.99 2°55.55 20.5962 0.056076 0.310545 -3.020363
2011-07-27 05:35:00 51°13.997 2°55.542 20.5966 0.056076 0.310534 -3.020363
2011-07-27 05:35:05 51°14.005 2°55.534 20.6098 0.056076 0.310523 -3.020363
2011-07-27 05:35:09 51°14.012 2°55.527 20.5984 0.056076 0.310523 -3.020363
2011-07-27 05:35:15 51°14.023 2°55.517 20.5985 0.056076 0.310506 -3.020363
2011-07-27 05:35:20 51°14.033 2°55.508 20.5992 0.056076 0.3105 -3.020363
2011-07-27 05:35:25 51°14.043 2°55.498 20.5909 0.056076 0.310495 -3.020363
2011-07-27 05:35:29 51°14.051 2°55.49 20.5722 0.056076 0.310483 -3.020363
2011-07-27 05:35:35 51°14.064 2°55.478 20.5999 0.056076 0.310483 -3.020363
2011-07-27 05:35:40 51°14.075 2°55.468 20.5855 0.056076 0.310483 -3.020363
2011-07-27 05:35:45 51°14.086 2°55.458 20.5815 0.056076 0.310483 -3.020363
2011-07-27 05:35:49 51°14.095 2°55.449 20.5924 0.056076 0.310483 -3.020363
2011-07-27 05:35:54 51°14.107 2°55.439 20.5789 0.056076 0.310495 -3.020363
2011-07-27 05:36:00 51°14.121 2°55.427 20.5927 0.056076 0.310495 -3.020363
2011-07-27 05:36:05 51°14.133 2°55.416 20.5849 0.056076 0.310495 -3.020363
2011-07-27 05:36:09 51°14.143 2°55.408 20.6007 0.056076 0.3105 -3.020363
2011-07-27 05:36:14 51°14.156 2°55.397 20.5784 0.056076 0.3105 -3.020363
2011-07-27 05:36:19 51°14.168 2°55.386 20.5925 0.056076 0.3105 -3.020363
2011-07-27 05:36:24 51°14.181 2°55.375 20.5983 0.056076 0.310495 -3.020363
2011-07-27 05:36:29 51°14.194 2°55.364 20.5965 0.056076 0.3105 -3.020363
2011-07-27 05:36:34 51°14.207 2°55.352 20.5753 0.056076 0.3105 -3.020363
2011-07-27 05:36:39 51°14.219 2°55.34 20.5915 0.056076 0.310495 -3.020363
2011-07-27 05:36:44 51°14.231 2°55.328 20.5765 0.056076 0.310495 -3.020363
2011-07-27 05:36:49 51°14.244 2°55.316 20.5854 0.056076 0.310495 -3.020363
2011-07-27 05:36:53 51°14.254 2°55.306 20.5667 0.056076 0.310489 -3.020363
2011-07-27 05:36:58 51°14.267 2°55.294 20.5978 0.056076 0.310483 -3.020363
2011-07-27 05:37:03 51°14.279 2°55.282 20.5953 0.056076 0.310483 -3.020363
2011-07-27 05:37:09 51°14.294 2°55.267 20.5613 0.056076 0.310483 -3.020363
2011-07-27 05:37:13 51°14.304 2°55.257 20.6089 0.056076 0.310483 -3.020363
2011-07-27 05:37:18 51°14.317 2°55.245 20.5539 0.056076 0.310483 -3.020363
2011-07-27 05:37:23 51°14.33 2°55.232 20.5881 0.056076 0.310483 -3.020363
2011-07-27 05:37:28 51°14.343 2°55.22 20.5734 0.056076 0.310478 -3.020363
2011-07-27 05:37:33 51°14.355 2°55.207 20.587 0.056076 0.310478 -3.020363
2011-07-27 05:37:37 51°14.366 2°55.197 20.5601 0.056076 0.310478 -3.020363
2011-07-27 05:37:43 51°14.382 2°55.181 20.5745 0.056076 0.310478 -3.020363
2011-07-27 05:37:48 51°14.396 2°55.169 20.562 0.056076 0.310478 -3.020363
2011-07-27 05:37:53 51°14.409 2°55.155 20.5698 0.056076 0.310478 -3.020363
2011-07-27 05:37:58 51°14.422 2°55.142 20.5256 0.056076 0.310483 -3.020363
2011-07-27 05:38:03 51°14.436 2°55.128 20.5751 0.056076 0.310478 -3.020363
2011-07-27 05:38:07 51°14.446 2°55.117 20.5486 0.056076 0.310483 -3.020363
2011-07-27 05:38:13 51°14.462 2°55.099 20.5656 0.056076 0.310483 -3.020363
2011-07-27 05:38:17 51°14.472 2°55.088 20.5405 0.056076 0.310478 -3.020363
2011-07-27 05:38:23 51°14.489 2°55.07 20.5634 0.056076 0.310472 -3.020363
2011-07-27 05:38:28 51°14.502 2°55.056 20.5119 0.056076 0.310472 -3.020363
2011-07-27 05:38:33 51°14.515 2°55.04 20.5584 0.056076 0.310467 -3.020363
2011-07-27 05:38:37 51°14.526 2°55.027 20.5671 0.056076 0.310467 -3.020363
2011-07-27 05:38:43 51°14.541 2°55.007 20.5227 0.056076 0.310478 -3.020363
2011-07-27 05:38:48 51°14.553 2°54.989 20.5499 0.056076 0.310472 -3.020363
2011-07-27 05:38:53 51°14.566 2°54.971 20.5252 0.056076 0.310461 -3.020363
2011-07-27 05:38:57 51°14.577 2°54.957 20.5178 0.056076 0.310456 -3.020363
2011-07-27 05:39:03 51°14.592 2°54.936 20.5387 0.056076 0.310461 -3.020363
2011-07-27 05:39:08 51°14.605 2°54.919 20.5329 0.056076 0.310456 -3.020363
2011-07-27 05:39:13 51°14.619 2°54.903 20.5409 0.056076 0.310456 -3.020363
2011-07-27 05:39:17 51°14.63 2°54.889 20.5348 0.056076 0.310467 -3.020363
2011-07-27 05:39:23 51°14.646 2°54.869 20.5429 0.056076 0.310467 -3.020363
2011-07-27 05:39:28 51°14.659 2°54.852 20.5184 0.056076 0.310472 -3.020363
2011-07-27 05:39:33 51°14.673 2°54.836 20.5478 0.056076 0.310472 -3.020363
2011-07-27 05:39:37 51°14.684 2°54.822 20.526 0.056076 0.310472 -3.020363
2011-07-27 05:39:42 51°14.697 2°54.806 20.5351 0.056076 0.310472 -3.020363
2011-07-27 05:39:47 51°14.711 2°54.789 20.5308 0.056076 0.310472 -3.020363
2011-07-27 05:39:53 51°14.727 2°54.77 20.5337 0.056076 0.310472 -3.020363
2011-07-27 05:39:57 51°14.738 2°54.757 20.539 0.056076 0.310472 -3.020363
2011-07-27 05:40:03 51°14.754 2°54.737 20.5487 0.056076 0.310472 -3.020363
2011-07-27 05:40:08 51°14.768 2°54.72 20.5068 0.056076 0.310467 -3.020363
2011-07-27 05:40:13 51°14.781 2°54.704 20.5314 0.056076 0.310467 -3.020363
2011-07-27 05:40:18 51°14.795 2°54.687 20.507 0.056076 0.310467 -3.020363
2011-07-27 05:40:23 51°14.808 2°54.671 20.5155 0.056076 0.310461 -3.020363
2011-07-27 05:40:28 51°14.822 2°54.656 20.5436 0.056076 0.310461 -3.020363
2011-07-27 05:40:33 51°14.836 2°54.64 20.5381 0.056076 0.310461 -3.020363
2011-07-27 05:40:38 51°14.85 2°54.624 20.5263 0.056076 0.310461 -3.020363
2011-07-27 05:40:44 51°14.866 2°54.605 20.5193 0.056076 0.310461 -3.020363
2011-07-27 05:40:49 51°14.88 2°54.589 20.5445 0.056076 0.310461 -3.020363
2011-07-27 05:40:53 51°14.891 2°54.576 20.5262 0.056076 0.310461 -3.020363
2011-07-27 05:40:58 51°14.904 2°54.56 20.5398 0.056076 0.310467 -3.020363
2011-07-27 05:41:03 51°14.918 2°54.544 20.5193 0.056076 0.310467 -3.020363
2011-07-27 05:41:08 51°14.931 2°54.527 20.5098 0.056076 0.310461 -3.020363
2011-07-27 05:41:13 51°14.945 2°54.511 20.5267 0.056076 0.310461 -3.020363
2011-07-27 05:41:17 51°14.956 2°54.498 20.528 0.056076 0.310461 -3.020363
2011-07-27 05:41:22 51°14.969 2°54.482 20.5291 0.056076 0.310461 -3.020363
2011-07-27 05:41:28 51°14.985 2°54.462 20.5162 0.056076 0.310461 -3.020363
2011-07-27 05:41:33 51°14.999 2°54.446 20.5304 0.056076 0.310461 -3.020363
2011-07-27 05:41:37 51°15.009 2°54.432 20.5331 0.056076 0.310456 -3.020363
2011-07-27 05:41:42 51°15.022 2°54.416 20.5247 0.056076 0.310456 -3.020363
2011-07-27 05:41:48 51°15.038 2°54.395 20.5446 0.056076 0.310456 -3.020363
2011-07-27 05:41:53 51°15.052 2°54.378 20.54 0.056076 0.310456 -3.020363
2011-07-27 05:41:57 51°15.062 2°54.364 20.5111 0.056076 0.310456 -3.020363
2011-07-27 05:42:02 51°15.074 2°54.346 20.5321 0.056076 0.310456 -3.020363
2011-07-27 05:42:08 51°15.089 2°54.324 20.5104 0.056076 0.310456 -3.020363
2011-07-27 05:42:13 51°15.102 2°54.306 20.528 0.056076 0.310456 -3.020363
2011-07-27 05:42:17 51°15.112 2°54.291 20.5079 0.056076 0.31045 -3.020363
2011-07-27 05:42:23 51°15.127 2°54.27 20.5301 0.056076 0.31045 -3.020363
2011-07-27 05:42:28 51°15.14 2°54.253 20.5333 0.056076 0.31045 -3.020363
2011-07-27 05:42:33 51°15.153 2°54.237 20.5396 0.056076 0.31045 -3.020363
2011-07-27 05:42:37 51°15.164 2°54.223 20.5178 0.056076 0.31045 -3.020363
2011-07-27 05:42:42 51°15.177 2°54.206 20.5204 0.056076 0.31045 -3.020363
2011-07-27 05:42:48 51°15.193 2°54.185 20.5175 0.056076 0.31045 -3.020363
2011-07-27 05:42:53 51°15.206 2°54.169 20.5381 0.056076 0.31045 -3.020363
2011-07-27 05:42:57 51°15.217 2°54.155 20.5192 0.056076 0.31045 -3.020363
2011-07-27 05:43:03 51°15.233 2°54.135 20.5305 0.056076 0.31045 -3.020363
2011-07-27 05:43:08 51°15.246 2°54.119 20.5248 0.056076 0.31045 -3.020363
2011-07-27 05:43:13 51°15.259 2°54.102 20.5129 0.056076 0.31045 -3.020363
2011-07-27 05:43:17 51°15.27 2°54.089 20.5166 0.056076 0.310444 -3.020363
2011-07-27 05:43:23 51°15.286 2°54.07 20.5302 0.056076 0.310444 -3.020363
2011-07-27 05:43:28 51°15.3 2°54.054 20.5107 0.056076 0.310444 -3.020363
2011-07-27 05:43:33 51°15.313 2°54.039 20.5298 0.056076 0.31045 -3.020363
2011-07-27 05:43:37 51°15.324 2°54.026 20.5349 0.056076 0.310444 -3.020363
2011-07-27 05:43:42 51°15.337 2°54.009 20.5282 0.056076 0.310444 -3.020363
2011-07-27 05:43:48 51°15.353 2°53.989 20.5342 0.056076 0.310444 -3.020363
2011-07-27 05:43:53 51°15.366 2°53.972 20.5135 0.056076 0.310444 -3.020363
2011-07-27 05:43:57 51°15.377 2°53.958 20.5107 0.056076 0.310439 -3.020363
2011-07-27 05:44:02 51°15.39 2°53.94 20.5312 0.056076 0.310444 -3.020363
2011-07-27 05:44:08 51°15.405 2°53.919 20.5292 0.056076 0.310444 -3.020363
2011-07-27 05:44:13 51°15.418 2°53.902 20.534 0.056076 0.310444 -3.020363
2011-07-27 05:44:17 51°15.428 2°53.888 20.5085 0.056076 0.310439 -3.020363
2011-07-27 05:44:23 51°15.444 2°53.867 20.5324 0.056076 0.310444 -3.020363
2011-07-27 05:44:27 51°15.454 2°53.853 20.5338 0.056076 0.310439 -3.020363
2011-07-27 05:44:33 51°15.469 2°53.832 20.5352 0.056076 0.310439 -3.020363
2011-07-27 05:44:37 51°15.48 2°53.817 20.5342 0.056076 0.310439 -3.020363
2011-07-27 05:44:43 51°15.495 2°53.797 20.5247 0.056076 0.310439 -3.020363
2011-07-27 05:44:47 51°15.506 2°53.783 20.5319 0.056076 0.310439 -3.020363
2011-07-27 05:44:53 51°15.522 2°53.763 20.5247 0.056076 0.310439 -3.020363
2011-07-27 05:44:57 51°15.533 2°53.75 20.5232 0.056076 0.310439 -3.020363
2011-07-27 05:45:03 51°15.549 2°53.731 20.5231 0.056076 0.310439 -3.020363
2011-07-27 05:45:08 51°15.563 2°53.715 20.5393 0.056076 0.310433 -3.020363
2011-07-27 05:45:13 51°15.576 2°53.699 20.5329 0.056076 0.310433 -3.020363
2011-07-27 05:45:17 51°15.588 2°53.687 20.5367 0.056076 0.310433 -3.020363
2011-07-27 05:45:23 51°15.604 2°53.669 20.5331 0.056076 0.310433 -3.020363
2011-07-27 05:45:28 51°15.619 2°53.654 20.5179 0.056076 0.310439 -3.020363
2011-07-27 05:45:33 51°15.633 2°53.639 20.5282 0.056076 0.310439 -3.020363
2011-07-27 05:45:37 51°15.644 2°53.627 20.5323 0.056076 0.310439 -3.020363
2011-07-27 05:45:42 51°15.658 2°53.612 20.5464 0.056076 0.310433 -3.020363
2011-07-27 05:45:48 51°15.674 2°53.594 20.5463 0.056076 0.310433 -3.020363
2011-07-27 05:45:53 51°15.688 2°53.578 20.5267 0.056076 0.310439 -3.020363
2011-07-27 05:45:57 51°15.699 2°53.565 20.5351 0.056076 0.310433 -3.020363
2011-07-27 05:46:03 51°15.715 2°53.547 20.5305 0.056076 0.310433 -3.020363
2011-07-27 05:46:08 51°15.729 2°53.532 20.5318 0.056076 0.310428 -3.020363
2011-07-27 05:46:13 51°15.743 2°53.517 20.5251 0.056076 0.310428 -3.020363
2011-07-27 05:46:17 51°15.755 2°53.506 20.5352 0.056076 0.310416 -3.020363
2011-07-27 05:46:23 51°15.772 2°53.492 20.5218 0.056076 0.310416 -3.020363
2011-07-27 05:46:28 51°15.787 2°53.481 20.5266 0.056076 0.310416 -3.020363
2011-07-27 05:46:33 51°15.802 2°53.47 20.5422 0.056076 0.310416 -3.020363
2011-07-27 05:46:37 51°15.815 2°53.462 20.5466 0.056076 0.310422 -3.020363
2011-07-27 05:46:42 51°15.83 2°53.453 20.5421 0.056076 0.310422 -3.020363
2011-07-27 05:46:48 51°15.849 2°53.442 20.5478 0.056076 0.310422 -3.020363
2011-07-27 05:46:53 51°15.864 2°53.434 20.5481 0.056076 0.310433 -3.020363
2011-07-27 05:46:57 51°15.877 2°53.427 20.5371 0.056076 0.310439 -3.020363
2011-07-27 05:47:03 51°15.896 2°53.416 20.5502 0.056076 0.310444 -3.020363
2011-07-27 05:47:08 51°15.911 2°53.406 20.5553 0.056076 0.310439 -3.020363
2011-07-27 05:47:13 51°15.926 2°53.396 20.5535 0.056076 0.310439 -3.020363
2011-07-27 05:47:17 51°15.938 2°53.387 20.55 0.056076 0.310439 -3.020363
2011-07-27 05:47:22 51°15.953 2°53.376 20.5397 0.056076 0.310433 -3.020363
2011-07-27 05:47:27 51°15.969 2°53.365 20.5441 0.056076 0.310433 -3.020363
2011-07-27 05:47:33 51°15.987 2°53.351 20.5502 0.056076 0.310428 -3.020363
2011-07-27 05:47:37 51°15.999 2°53.342 20.5565 0.056076 0.310428 -3.020363
2011-07-27 05:47:42 51°16.013 2°53.33 20.5432 0.056076 0.310428 -3.020363
2011-07-27 05:47:48 51°16.031 2°53.315 20.5364 0.056076 0.310422 -3.020363
2011-07-27 05:47:53 51°16.046 2°53.301 20.5438 0.056076 0.310422 -3.020363
2011-07-27 05:47:57 51°16.057 2°53.291 20.5498 0.056076 0.310422 -3.020363
2011-07-27 05:48:03 51°16.074 2°53.274 20.552 0.056076 0.310416 -3.020363
2011-07-27 05:48:08 51°16.089 2°53.261 20.5401 0.056076 0.310422 -3.020363
2011-07-27 05:48:13 51°16.104 2°53.249 20.5516 0.056076 0.310422 -3.020363
2011-07-27 05:48:17 51°16.116 2°53.239 20.5491 0.056076 0.310422 -3.020363
2011-07-27 05:48:22 51°16.131 2°53.227 20.5372 0.056179 0.311007 -3.020363
2011-07-27 05:48:28 51°16.149 2°53.214 20.5565 0.056076 0.310422 -3.020363
2011-07-27 05:48:33 51°16.164 2°53.203 20.5464 0.056076 0.310422 -3.020363
2011-07-27 05:48:37 51°16.176 2°53.194 20.5481 0.056076 0.310428 -3.020363
2011-07-27 05:48:42 51°16.191 2°53.184 20.5466 0.056076 0.310428 -3.020363
2011-07-27 05:48:48 51°16.209 2°53.171 20.5547 0.056076 0.310428 -3.020363
2011-07-27 05:48:53 51°16.224 2°53.161 20.5504 0.056076 0.310422 -3.020363
2011-07-27 05:48:57 51°16.237 2°53.152 20.5486 0.056076 0.310422 -3.020363
2011-07-27 05:49:02 51°16.252 2°53.141 20.5539 0.056076 0.310416 -3.020363
2011-07-27 05:49:08 51°16.27 2°53.128 20.5609 0.056076 0.310411 -3.020363
2011-07-27 05:49:13 51°16.285 2°53.117 20.5571 0.056076 0.310411 -3.020363
2011-07-27 05:49:17 51°16.297 2°53.109 20.5528 0.056076 0.310416 -3.020363
2011-07-27 05:49:22 51°16.312 2°53.098 20.5544 0.056076 0.310411 -3.020363
2011-07-27 05:49:28 51°16.33 2°53.085 20.5447 0.056179 0.310991 -3.020363
2011-07-27 05:49:33 51°16.345 2°53.075 20.5669 0.056076 0.310411 -3.020363
2011-07-27 05:49:37 51°16.357 2°53.067 20.5455 0.056076 0.310416 -3.020363
2011-07-27 05:49:42 51°16.372 2°53.056 20.561 0.056076 0.310416 -3.020363
2011-07-27 05:49:48 51°16.389 2°53.043 20.5632 0.056076 0.310411 -3.020363
2011-07-27 05:49:53 51°16.405 2°53.032 20.5596 0.056076 0.310416 -3.020363
2011-07-27 05:49:57 51°16.417 2°53.023 20.5647 0.056076 0.310416 -3.020363
2011-07-27 05:50:02 51°16.432 2°53.012 20.5632 0.056076 0.310416 -3.020363
2011-07-27 05:50:08 51°16.449 2°52.997 20.5684 0.056076 0.310416 -3.020363
2011-07-27 05:50:13 51°16.464 2°52.984 20.551 0.056076 0.310416 -3.020363
2011-07-27 05:50:17 51°16.476 2°52.974 20.564 0.056179 0.311007 -3.020363
2011-07-27 05:50:23 51°16.493 2°52.958 20.5687 0.056076 0.310416 -3.020363
2011-07-27 05:50:28 51°16.507 2°52.945 20.5628 0.056076 0.310411 -3.020363
2011-07-27 05:50:33 51°16.522 2°52.932 20.5657 0.056179 0.310996 -3.020363
2011-07-27 05:50:37 51°16.533 2°52.921 20.5676 0.056076 0.310405 -3.020363
2011-07-27 05:50:42 51°16.548 2°52.908 20.5684 0.056076 0.310405 -3.020363
2011-07-27 05:50:48 51°16.565 2°52.893 20.559 0.056076 0.310405 -3.020363
2011-07-27 05:50:53 51°16.58 2°52.88 20.5536 0.056076 0.310405 -3.020363
2011-07-27 05:50:57 51°16.591 2°52.869 20.5694 0.056179 0.310991 -3.020363
2011-07-27 05:51:02 51°16.606 2°52.857 20.56 0.056179 0.310991 -3.020363
2011-07-27 05:51:08 51°16.623 2°52.841 20.5693 0.056179 0.310991 -3.020363
2011-07-27 05:51:13 51°16.638 2°52.828 20.5634 0.056179 0.310991 -3.020363
2011-07-27 05:51:17 51°16.649 2°52.818 20.5659 0.056179 0.310996 -3.020363
2011-07-27 05:51:23 51°16.667 2°52.802 20.5671 0.056179 0.310996 -3.020363
2011-07-27 05:51:28 51°16.681 2°52.79 20.5587 0.056076 0.310411 -3.020363
2011-07-27 05:51:33 51°16.696 2°52.777 20.5689 0.056076 0.310405 -3.020363
2011-07-27 05:51:37 51°16.707 2°52.768 20.5686 0.056179 0.310991 -3.020363
2011-07-27 05:51:42 51°16.722 2°52.757 20.5685 0.056179 0.310991 -3.020363
2011-07-27 05:51:48 51°16.74 2°52.744 20.5739 0.056076 0.310405 -3.020363
2011-07-27 05:51:53 51°16.755 2°52.734 20.5666 0.056179 0.310991 -3.020363
2011-07-27 05:51:57 51°16.767 2°52.726 20.5749 0.056179 0.310991 -3.020363
2011-07-27 05:52:03 51°16.785 2°52.715 20.5761 0.056179 0.310991 -3.020363
2011-07-27 05:52:08 51°16.801 2°52.706 20.5724 0.056179 0.310991 -3.020363
2011-07-27 05:52:13 51°16.816 2°52.696 20.5757 0.056179 0.310991 -3.020363
2011-07-27 05:52:17 51°16.828 2°52.688 20.5682 0.056179 0.310996 -3.020363
2011-07-27 05:52:22 51°16.843 2°52.679 20.574 0.056076 0.310405 -3.020363
2011-07-27 05:52:28 51°16.86 2°52.666 20.5784 0.056076 0.310405 -3.020363
2011-07-27 05:52:33 51°16.875 2°52.656 20.5775 0.056179 0.310991 -3.020363
2011-07-27 05:52:37 51°16.887 2°52.647 20.5795 0.056076 0.310405 -3.020363
2011-07-27 05:52:42 51°16.902 2°52.637 20.5713 0.056076 0.310405 -3.020363
2011-07-27 05:52:48 51°16.92 2°52.624 20.5864 0.056179 0.310991 -3.020363
2011-07-27 05:52:53 51°16.934 2°52.613 20.5709 0.056179 0.310996 -3.020363
2011-07-27 05:52:57 51°16.946 2°52.603 20.5776 0.056076 0.310405 -3.020363
2011-07-27 05:53:02 51°16.961 2°52.592 20.5799 0.056179 0.310991 -3.020363
2011-07-27 05:53:08 51°16.978 2°52.578 20.5784 0.056076 0.310405 -3.020363
2011-07-27 05:53:13 51°16.993 2°52.566 20.5834 0.056076 0.310405 -3.020363
2011-07-27 05:53:17 51°17.004 2°52.556 20.5847 0.056179 0.310991 -3.020363
2011-07-27 05:53:22 51°17.018 2°52.544 20.5734 0.056179 0.310991 -3.020363
2011-07-27 05:53:28 51°17.035 2°52.529 20.5875 0.056179 0.310991 -3.020363
2011-07-27 05:53:33 51°17.049 2°52.516 20.5856 0.056179 0.310991 -3.020363
2011-07-27 05:53:37 51°17.06 2°52.506 20.587 0.056179 0.310991 -3.020363
2011-07-27 05:53:42 51°17.074 2°52.494 20.5886 0.056179 0.310991 -3.020363
2011-07-27 05:53:48 51°17.091 2°52.479 20.5858 0.056179 0.310991 -3.020363
2011-07-27 05:53:53 51°17.105 2°52.467 20.5839 0.056179 0.310991 -3.020363
2011-07-27 05:53:57 51°17.117 2°52.457 20.5746 0.056179 0.310985 -3.020363
2011-07-27 05:54:02 51°17.131 2°52.445 20.5855 0.056179 0.310985 -3.020363
2011-07-27 05:54:08 51°17.149 2°52.431 20.5829 0.056179 0.310985 -3.020363
2011-07-27 05:54:13 51°17.163 2°52.42 20.5842 0.056179 0.310985 -3.020363
2011-07-27 05:54:17 51°17.175 2°52.411 20.5858 0.056179 0.310985 -3.020363
2011-07-27 05:54:23 51°17.193 2°52.398 20.5888 0.056179 0.310985 -3.020363
2011-07-27 05:54:28 51°17.208 2°52.389 20.5921 0.056179 0.310985 -3.020363
2011-07-27 05:54:33 51°17.223 2°52.378 20.5833 0.056179 0.310985 -3.020363
2011-07-27 05:54:37 51°17.235 2°52.37 20.5858 0.056179 0.310985 -3.020363
2011-07-27 05:54:42 51°17.25 2°52.36 20.5891 0.056179 0.310985 -3.020363
2011-07-27 05:54:48 51°17.268 2°52.349 20.588 0.056179 0.310985 -3.020363
2011-07-27 05:54:53 51°17.283 2°52.339 20.5913 0.056179 0.310985 -3.020363
2011-07-27 05:54:57 51°17.295 2°52.33 20.5985 0.056179 0.310991 -3.020363
2011-07-27 05:55:02 51°17.309 2°52.319 20.5991 0.056076 0.3104 -3.020363
2011-07-27 05:55:08 51°17.327 2°52.305 20.5976 0.056179 0.310991 -3.020363
2011-07-27 05:55:13 51°17.341 2°52.294 20.5872 0.056179 0.310991 -3.020363
2011-07-27 05:55:17 51°17.353 2°52.284 20.6038 0.056179 0.310985 -3.020363
2011-07-27 05:55:23 51°17.371 2°52.27 20.5975 0.056179 0.310985 -3.020363
2011-07-27 05:55:28 51°17.385 2°52.259 20.5989 0.056179 0.310985 -3.020363
2011-07-27 05:55:33 51°17.4 2°52.247 20.6004 0.056179 0.310985 -3.020363
2011-07-27 05:55:37 51°17.412 2°52.238 20.6057 0.056179 0.310985 -3.020363
2011-07-27 05:55:42 51°17.427 2°52.227 20.6062 0.056179 0.310985 -3.020363
2011-07-27 05:55:48 51°17.444 2°52.214 20.6028 0.056076 0.3104 -3.020363
2011-07-27 05:55:53 51°17.458 2°52.202 20.5992 0.056179 0.310991 -3.020363
2011-07-27 05:55:57 51°17.47 2°52.192 20.5988 0.056179 0.310985 -3.020363
2011-07-27 05:56:03 51°17.488 2°52.177 20.5944 0.056179 0.310985 -3.020363
2011-07-27 05:56:08 51°17.502 2°52.164 20.599 0.056179 0.310985 -3.020363
2011-07-27 05:56:13 51°17.517 2°52.152 20.6017 0.056179 0.310985 -3.020363
2011-07-27 05:56:17 51°17.528 2°52.143 20.5962 0.056179 0.310985 -3.020363
2011-07-27 05:56:22 51°17.543 2°52.131 20.603 0.056179 0.310985 -3.020363
2011-07-27 05:56:28 51°17.56 2°52.117 20.6036 0.056179 0.310985 -3.020363
2011-07-27 05:56:33 51°17.575 2°52.106 20.5959 0.056179 0.310979 -3.020363
2011-07-27 05:56:37 51°17.587 2°52.098 20.6064 0.056179 0.310979 -3.020363
2011-07-27 05:56:42 51°17.602 2°52.087 20.6032 0.056179 0.310979 -3.020363
2011-07-27 05:56:48 51°17.62 2°52.074 20.6099 0.056179 0.310979 -3.020363
2011-07-27 05:56:53 51°17.634 2°52.064 20.6011 0.056179 0.310979 -3.020363
2011-07-27 05:56:57 51°17.646 2°52.055 20.6058 0.056179 0.310979 -3.020363
2011-07-27 05:57:02 51°17.661 2°52.045 20.604 0.056179 0.310979 -3.020363
2011-07-27 05:57:08 51°17.679 2°52.032 20.6149 0.056179 0.310979 -3.020363
2011-07-27 05:57:13 51°17.694 2°52.022 20.615 0.056179 0.310979 -3.020363
2011-07-27 05:57:17 51°17.706 2°52.013 20.6209 0.056179 0.310985 -3.020363
2011-07-27 05:57:22 51°17.72 2°52.002 20.6097 0.056179 0.310985 -3.020363
2011-07-27 05:57:28 51°17.738 2°51.988 20.6149 0.056179 0.310985 -3.020363
2011-07-27 05:57:33 51°17.752 2°51.976 20.609 0.056179 0.310979 -3.020363
2011-07-27 05:57:37 51°17.763 2°51.966 20.6211 0.056179 0.310985 -3.020363
2011-07-27 05:57:42 51°17.778 2°51.953 20.6068 0.056179 0.310985 -3.020363
2011-07-27 05:57:48 51°17.794 2°51.937 20.6234 0.056179 0.310979 -3.020363
2011-07-27 05:57:53 51°17.808 2°51.923 20.6155 0.056179 0.310985 -3.020363
2011-07-27 05:57:57 51°17.819 2°51.912 20.6137 0.056179 0.310979 -3.020363
2011-07-27 05:58:02 51°17.832 2°51.896 20.6136 0.056179 0.310979 -3.020363
2011-07-27 05:58:08 51°17.847 2°51.878 20.6215 0.056179 0.310979 -3.020363
2011-07-27 05:58:13 51°17.86 2°51.861 20.6176 0.056179 0.310979 -3.020363
2011-07-27 05:58:17 51°17.871 2°51.848 20.6273 0.056179 0.310979 -3.020363
2011-07-27 05:58:23 51°17.886 2°51.828 20.6241 0.056179 0.310985 -3.020363
2011-07-27 05:58:28 51°17.898 2°51.809 20.6219 0.056179 0.310979 -3.020363
2011-07-27 05:58:33 51°17.909 2°51.791 20.6209 0.056179 0.310985 -3.020363
2011-07-27 05:58:37 51°17.918 2°51.776 20.6147 0.056179 0.310979 -3.020363
2011-07-27 05:58:42 51°17.93 2°51.756 20.6243 0.056179 0.310979 -3.020363
2011-07-27 05:58:48 51°17.942 2°51.732 20.6268 0.056179 0.310979 -3.020363
2011-07-27 05:58:53 51°17.953 2°51.711 20.6311 0.056179 0.310979 -3.020363
2011-07-27 05:58:57 51°17.961 2°51.695 20.6165 0.056179 0.310974 -3.020363
2011-07-27 05:59:03 51°17.973 2°51.67 20.6204 0.056179 0.310974 -3.020363
2011-07-27 05:59:08 51°17.984 2°51.649 20.6288 0.056179 0.310974 -3.020363
2011-07-27 05:59:13 51°17.995 2°51.629 20.6179 0.056179 0.310974 -3.020363
2011-07-27 05:59:17 51°18.003 2°51.612 20.6204 0.056179 0.310968 -3.020363
2011-07-27 05:59:22 51°18.015 2°51.593 20.6313 0.056179 0.310968 -3.020363
2011-07-27 05:59:27 51°18.027 2°51.573 20.633 0.056179 0.310968 -3.020363
2011-07-27 05:59:33 51°18.04 2°51.549 20.6294 0.056179 0.310968 -3.020363
2011-07-27 05:59:37 51°18.05 2°51.534 20.6247 0.056179 0.310974 -3.020363
2011-07-27 05:59:42 51°18.062 2°51.515 20.6303 0.056179 0.310974 -3.020363
2011-07-27 05:59:48 51°18.076 2°51.492 20.639 0.056179 0.310974 -3.020363
2011-07-27 05:59:53 51°18.088 2°51.473 20.6372 0.056179 0.310974 -3.020363
2011-07-27 05:59:57 51°18.097 2°51.458 20.6318 0.056179 0.310979 -3.020363
2011-07-27 06:00:03 51°18.111 2°51.435 20.6352 0.056179 0.310979 -3.020363
2011-07-27 06:00:08 51°18.123 2°51.415 20.6379 0.056179 0.310979 -3.020363
2011-07-27 06:00:13 51°18.135 2°51.396 20.6372 0.056179 0.310979 -3.020363
2011-07-27 06:00:17 51°18.144 2°51.38 20.6328 0.056179 0.310968 -3.020363
2011-07-27 06:00:22 51°18.156 2°51.361 20.6364 0.056179 0.310968 -3.020363
2011-07-27 06:00:28 51°18.171 2°51.338 20.6409 0.056179 0.310968 -3.020363
2011-07-27 06:00:33 51°18.183 2°51.32 20.639 0.056179 0.310968 -3.020363
2011-07-27 06:00:37 51°18.193 2°51.306 20.6394 0.056179 0.310968 -3.020363
2011-07-27 06:00:42 51°18.205 2°51.288 20.6339 0.056179 0.310968 -3.020363
2011-07-27 06:00:48 51°18.22 2°51.267 20.6446 0.056179 0.310968 -3.020363
2011-07-27 06:00:53 51°18.233 2°51.249 20.6413 0.056179 0.310968 -3.020363
2011-07-27 06:00:57 51°18.243 2°51.235 20.6373 0.056179 0.310974 -3.020363
2011-07-27 06:01:02 51°18.256 2°51.218 20.6488 0.056179 0.310974 -3.020363
2011-07-27 06:01:08 51°18.272 2°51.196 20.6431 0.056179 0.310974 -3.020363
2011-07-27 06:01:13 51°18.284 2°51.179 20.6484 0.056179 0.310974 -3.020363
2011-07-27 06:01:17 51°18.294 2°51.164 20.6432 0.056179 0.310979 -3.020363
2011-07-27 06:01:22 51°18.307 2°51.147 20.6508 0.056179 0.310979 -3.020363
2011-07-27 06:01:28 51°18.322 2°51.125 20.6502 0.056179 0.310979 -3.020363
2011-07-27 06:01:33 51°18.335 2°51.108 20.6505 0.056179 0.310974 -3.020363
2011-07-27 06:01:37 51°18.345 2°51.093 20.6463 0.056179 0.310974 -3.020363
2011-07-27 06:01:42 51°18.357 2°51.074 20.6565 0.056179 0.310974 -3.020363
2011-07-27 06:01:48 51°18.372 2°51.052 20.6454 0.056179 0.310974 -3.020363
2011-07-27 06:01:53 51°18.384 2°51.033 20.6453 0.056179 0.310968 -3.020363
2011-07-27 06:01:57 51°18.393 2°51.018 20.653 0.056179 0.310968 -3.020363
2011-07-27 06:02:02 51°18.405 2°50.999 20.6557 0.056179 0.310968 -3.020363
2011-07-27 06:02:07 51°18.417 2°50.979 20.6558 0.056179 0.310968 -3.020363
2011-07-27 06:02:13 51°18.431 2°50.956 20.6559 0.056179 0.310968 -3.020363
2011-07-27 06:02:17 51°18.441 2°50.941 20.6545 0.056179 0.310968 -3.020363
2011-07-27 06:02:22 51°18.452 2°50.921 20.6547 0.056179 0.310974 -3.020363
2011-07-27 06:02:27 51°18.464 2°50.902 20.6547 0.056179 0.310974 -3.020363
2011-07-27 06:02:33 51°18.478 2°50.878 20.6598 0.056179 0.310974 -3.020363
2011-07-27 06:02:37 51°18.487 2°50.863 20.6582 0.056179 0.310974 -3.020363
2011-07-27 06:02:43 51°18.502 2°50.84 20.6649 0.056179 0.310974 -3.020363
2011-07-27 06:02:47 51°18.511 2°50.825 20.6641 0.056179 0.310979 -3.020363
2011-07-27 06:02:53 51°18.526 2°50.802 20.664 0.056179 0.310979 -3.020363
2011-07-27 06:02:57 51°18.535 2°50.787 20.6542 0.056179 0.310974 -3.020363
2011-07-27 06:03:03 51°18.55 2°50.765 20.663 0.056179 0.310968 -3.020363
2011-07-27 06:03:07 51°18.559 2°50.75 20.6617 0.056179 0.310968 -3.020363
2011-07-27 06:03:13 51°18.574 2°50.728 20.6559 0.056179 0.310968 -3.020363
2011-07-27 06:03:17 51°18.584 2°50.713 20.6602 0.056179 0.310963 -3.020363
2011-07-27 06:03:23 51°18.599 2°50.692 20.6699 0.056179 0.310963 -3.020363
2011-07-27 06:03:27 51°18.609 2°50.677 20.6649 0.056179 0.310963 -3.020363
2011-07-27 06:03:33 51°18.624 2°50.656 20.6579 0.056179 0.310963 -3.020363
2011-07-27 06:03:37 51°18.634 2°50.642 20.667 0.056179 0.310963 -3.020363
2011-07-27 06:03:43 51°18.649 2°50.62 20.671 0.056179 0.310957 -3.020363
2011-07-27 06:03:48 51°18.661 2°50.603 20.6705 0.056179 0.310957 -3.020363
2011-07-27 06:03:53 51°18.674 2°50.585 20.6641 0.056179 0.310963 -3.020363
2011-07-27 06:03:57 51°18.684 2°50.57 20.6707 0.056179 0.310963 -3.020363
2011-07-27 06:04:03 51°18.698 2°50.548 20.6725 0.056179 0.310963 -3.020363
2011-07-27 06:04:08 51°18.711 2°50.53 20.6655 0.056179 0.310963 -3.020363
2011-07-27 06:04:13 51°18.723 2°50.511 20.6797 0.056179 0.310963 -3.020363
2011-07-27 06:04:17 51°18.732 2°50.497 20.6772 0.056179 0.310963 -3.020363
2011-07-27 06:04:23 51°18.747 2°50.474 20.6754 0.056179 0.310968 -3.020363
2011-07-27 06:04:27 51°18.757 2°50.459 20.6783 0.056179 0.310968 -3.020363
2011-07-27 06:04:33 51°18.771 2°50.437 20.6696 0.056179 0.310963 -3.020363
2011-07-27 06:04:37 51°18.781 2°50.422 20.6813 0.056179 0.310963 -3.020363
2011-07-27 06:04:42 51°18.793 2°50.402 20.6817 0.056179 0.310963 -3.020363
2011-07-27 06:04:48 51°18.807 2°50.379 20.6815 0.056179 0.310968 -3.020363
2011-07-27 06:04:53 51°18.819 2°50.36 20.6832 0.056179 0.310968 -3.020363
2011-07-27 06:04:57 51°18.828 2°50.344 20.6725 0.056179 0.310963 -3.020363
2011-07-27 06:05:02 51°18.84 2°50.325 20.6763 0.056179 0.310968 -3.020363
2011-07-27 06:05:08 51°18.853 2°50.301 20.6768 0.056179 0.310963 -3.020363
2011-07-27 06:05:13 51°18.864 2°50.281 20.6841 0.056179 0.310963 -3.020363
2011-07-27 06:05:17 51°18.874 2°50.266 20.6842 0.056179 0.310963 -3.020363
2011-07-27 06:05:22 51°18.885 2°50.247 20.6822 0.056179 0.310963 -3.020363
2011-07-27 06:05:28 51°18.9 2°50.225 20.6814 0.056179 0.310957 -3.020363
2011-07-27 06:05:33 51°18.912 2°50.206 20.6804 0.056179 0.310957 -3.020363
2011-07-27 06:05:37 51°18.921 2°50.191 20.6899 0.056179 0.310957 -3.020363
2011-07-27 06:05:43 51°18.936 2°50.169 20.6853 0.056179 0.310957 -3.020363
2011-07-27 06:05:47 51°18.946 2°50.154 20.6781 0.056179 0.310957 -3.020363
2011-07-27 06:05:53 51°18.96 2°50.133 20.6792 0.056179 0.310957 -3.020363
2011-07-27 06:05:57 51°18.97 2°50.118 20.6927 0.056179 0.310957 -3.020363
2011-07-27 06:06:03 51°18.986 2°50.097 20.6899 0.056179 0.310957 -3.020363
2011-07-27 06:06:08 51°18.998 2°50.079 20.689 0.056179 0.310957 -3.020363
2011-07-27 06:06:13 51°19.011 2°50.062 20.6879 0.056179 0.310957 -3.020363
2011-07-27 06:06:17 51°19.021 2°50.048 20.6938 0.056179 0.310951 -3.020363
2011-07-27 06:06:23 51°19.036 2°50.027 20.6989 0.056179 0.310957 -3.020363
2011-07-27 06:06:28 51°19.049 2°50.009 20.69 0.056179 0.310957 -3.020363
2011-07-27 06:06:33 51°19.062 2°49.992 20.6945 0.056179 0.310951 -3.020363
2011-07-27 06:06:37 51°19.072 2°49.978 20.6926 0.056179 0.310957 -3.020363
2011-07-27 06:06:42 51°19.085 2°49.961 20.6931 0.056179 0.310957 -3.020363
2011-07-27 06:06:48 51°19.1 2°49.94 20.6975 0.056179 0.310957 -3.020363
2011-07-27 06:06:53 51°19.112 2°49.922 20.7019 0.056179 0.310957 -3.020363
2011-07-27 06:06:57 51°19.123 2°49.907 20.6982 0.056179 0.310957 -3.020363
2011-07-27 06:07:03 51°19.137 2°49.886 20.7023 0.056179 0.310957 -3.020363
2011-07-27 06:07:08 51°19.15 2°49.868 20.7035 0.056179 0.310957 -3.020363
2011-07-27 06:07:13 51°19.161 2°49.848 20.7022 0.056179 0.310957 -3.020363
2011-07-27 06:07:17 51°19.17 2°49.833 20.7073 0.056179 0.310963 -3.020363
2011-07-27 06:07:22 51°19.182 2°49.813 20.6963 0.056179 0.310957 -3.020363
2011-07-27 06:07:28 51°19.196 2°49.789 20.6997 0.056179 0.310957 -3.020363
2011-07-27 06:07:33 51°19.207 2°49.768 20.7016 0.056179 0.310951 -3.020363
2011-07-27 06:07:37 51°19.215 2°49.752 20.7033 0.056179 0.310951 -3.020363
2011-07-27 06:07:42 51°19.226 2°49.731 20.7084 0.056179 0.310951 -3.020363
2011-07-27 06:07:48 51°19.239 2°49.706 20.7064 0.056179 0.310946 -3.020363
2011-07-27 06:07:53 51°19.251 2°49.686 20.7088 0.056179 0.310946 -3.020363
2011-07-27 06:07:57 51°19.26 2°49.67 20.7115 0.056179 0.310946 -3.020363
2011-07-27 06:08:03 51°19.273 2°49.645 20.7087 0.056179 0.310951 -3.020363
2011-07-27 06:08:08 51°19.284 2°49.624 20.7136 0.056179 0.310946 -3.020363
2011-07-27 06:08:13 51°19.295 2°49.604 20.7135 0.056179 0.310946 -3.020363
2011-07-27 06:08:17 51°19.303 2°49.588 20.7034 0.056179 0.310946 -3.020363
2011-07-27 06:08:23 51°19.316 2°49.564 20.714 0.056179 0.310946 -3.020363
2011-07-27 06:08:27 51°19.325 2°49.548 20.7154 0.056179 0.310951 -3.020363
2011-07-27 06:08:33 51°19.339 2°49.523 20.7108 0.056179 0.310951 -3.020363
2011-07-27 06:08:37 51°19.347 2°49.507 20.7201 0.056179 0.310951 -3.020363
2011-07-27 06:08:42 51°19.359 2°49.486 20.7183 0.056179 0.310951 -3.020363
2011-07-27 06:08:48 51°19.371 2°49.463 20.7166 0.056179 0.310951 -3.020363
2011-07-27 06:08:53 51°19.383 2°49.443 20.7195 0.056179 0.310951 -3.020363
2011-07-27 06:08:57 51°19.392 2°49.427 20.7231 0.056179 0.310946 -3.020363
2011-07-27 06:09:02 51°19.403 2°49.407 20.7124 0.056179 0.31094 -3.020363
2011-07-27 06:09:07 51°19.414 2°49.387 20.7194 0.056179 0.31094 -3.020363
2011-07-27 06:09:13 51°19.428 2°49.363 20.7261 0.056179 0.31094 -3.020363
2011-07-27 06:09:17 51°19.438 2°49.348 20.7236 0.056179 0.310946 -3.020363
2011-07-27 06:09:23 51°19.451 2°49.324 20.7246 0.056179 0.310946 -3.020363
2011-07-27 06:09:27 51°19.461 2°49.308 20.7292 0.056179 0.310946 -3.020363
2011-07-27 06:09:33 51°19.474 2°49.284 20.7231 0.056179 0.310946 -3.020363
2011-07-27 06:09:37 51°19.484 2°49.268 20.7264 0.056179 0.310946 -3.020363
2011-07-27 06:09:43 51°19.497 2°49.244 20.73 0.056179 0.310946 -3.020363
2011-07-27 06:09:47 51°19.506 2°49.228 20.7267 0.056179 0.310946 -3.020363
2011-07-27 06:09:53 51°19.52 2°49.203 20.7318 0.056179 0.310951 -3.020363
2011-07-27 06:09:57 51°19.529 2°49.187 20.7303 0.056179 0.310951 -3.020363
2011-07-27 06:10:03 51°19.543 2°49.162 20.7246 0.056179 0.310951 -3.020363
2011-07-27 06:10:08 51°19.554 2°49.142 20.7274 0.056179 0.310946 -3.020363
2011-07-27 06:10:13 51°19.566 2°49.121 20.7315 0.056179 0.310946 -3.020363
2011-07-27 06:10:17 51°19.575 2°49.105 20.735 0.056179 0.31094 -3.020363
2011-07-27 06:10:21 51°19.584 2°49.088 20.7283 0.056179 0.31094 -3.020363
2011-07-27 06:10:28 51°19.599 2°49.059 20.7335 0.056179 0.31094 -3.020363
2011-07-27 06:10:33 51°19.611 2°49.038 20.7321 0.056179 0.310946 -3.020363
2011-07-27 06:10:37 51°19.62 2°49.022 20.7361 0.056179 0.31094 -3.020363
2011-07-27 06:10:43 51°19.633 2°48.996 20.7377 0.056179 0.31094 -3.020363
2011-07-27 06:10:48 51°19.644 2°48.975 20.7337 0.056179 0.31094 -3.020363
2011-07-27 06:10:53 51°19.656 2°48.955 20.7393 0.056179 0.31094 -3.020363
2011-07-27 06:10:57 51°19.665 2°48.938 20.7424 0.056179 0.31094 -3.020363
2011-07-27 06:11:03 51°19.678 2°48.914 20.7315 0.056179 0.310946 -3.020363
2011-07-27 06:11:08 51°19.689 2°48.893 20.7407 0.056179 0.310946 -3.020363
2011-07-27 06:11:13 51°19.701 2°48.872 20.7455 0.056179 0.310946 -3.020363
2011-07-27 06:11:17 51°19.709 2°48.855 20.7359 0.056179 0.310946 -3.020363
2011-07-27 06:11:22 51°19.72 2°48.834 20.7401 0.056179 0.310946 -3.020363
2011-07-27 06:11:28 51°19.734 2°48.809 20.7482 0.056179 0.310946 -3.020363
2011-07-27 06:11:33 51°19.745 2°48.788 20.7381 0.056179 0.31094 -3.020363
2011-07-27 06:11:37 51°19.754 2°48.77 20.7467 0.056179 0.31094 -3.020363
2011-07-27 06:11:42 51°19.765 2°48.749 20.7393 0.056179 0.31094 -3.020363
2011-07-27 06:11:48 51°19.779 2°48.723 20.7448 0.056179 0.31094 -3.020363
2011-07-27 06:11:53 51°19.791 2°48.703 20.7427 0.056179 0.31094 -3.020363
2011-07-27 06:11:57 51°19.8 2°48.686 20.7394 0.056179 0.310935 -3.020363
2011-07-27 06:12:02 51°19.811 2°48.665 20.7417 0.056179 0.31094 -3.020363
2011-07-27 06:12:07 51°19.822 2°48.644 20.7393 0.056179 0.31094 -3.020363
2011-07-27 06:12:13 51°19.836 2°48.619 20.7509 0.056179 0.31094 -3.020363
2011-07-27 06:12:17 51°19.845 2°48.602 20.7515 0.056179 0.31094 -3.020363
2011-07-27 06:12:22 51°19.856 2°48.582 20.7515 0.056179 0.31094 -3.020363
2011-07-27 06:12:28 51°19.869 2°48.557 20.7483 0.056179 0.31094 -3.020363
2011-07-27 06:12:33 51°19.881 2°48.536 20.7455 0.056179 0.31094 -3.020363
2011-07-27 06:12:37 51°19.89 2°48.52 20.7597 0.056179 0.31094 -3.020363
2011-07-27 06:12:42 51°19.902 2°48.499 20.7589 0.056179 0.31094 -3.020363
2011-07-27 06:12:48 51°19.915 2°48.475 20.7509 0.056179 0.31094 -3.020363
2011-07-27 06:12:53 51°19.927 2°48.454 20.7566 0.056179 0.31094 -3.020363
2011-07-27 06:12:57 51°19.936 2°48.438 20.7581 0.056179 0.31094 -3.020363
2011-07-27 06:13:02 51°19.947 2°48.417 20.7584 0.056179 0.310935 -3.020363
2011-07-27 06:13:07 51°19.959 2°48.397 20.7628 0.056179 0.31094 -3.020363
2011-07-27 06:13:13 51°19.974 2°48.373 20.7578 0.056179 0.31094 -3.020363
2011-07-27 06:13:17 51°19.983 2°48.357 20.7613 0.056179 0.310935 -3.020363
2011-07-27 06:13:22 51°19.996 2°48.337 20.756 0.056179 0.310935 -3.020363
2011-07-27 06:13:27 51°20.007 2°48.317 20.7623 0.056179 0.310935 -3.020363
2011-07-27 06:13:33 51°20.021 2°48.293 20.7658 0.056179 0.310935 -3.020363
2011-07-27 06:13:37 51°20.03 2°48.277 20.7674 0.056179 0.310935 -3.020363
2011-07-27 06:13:42 51°20.042 2°48.257 20.7615 0.056179 0.310935 -3.020363
2011-07-27 06:13:47 51°20.053 2°48.237 20.7708 0.056179 0.31094 -3.020363
2011-07-27 06:13:53 51°20.067 2°48.213 20.7618 0.056179 0.310935 -3.020363
2011-07-27 06:13:57 51°20.076 2°48.197 20.7672 0.056179 0.310935 -3.020363
2011-07-27 06:14:03 51°20.09 2°48.172 20.7674 0.056179 0.310935 -3.020363
2011-07-27 06:14:07 51°20.098 2°48.156 20.7732 0.056179 0.310935 -3.020363
2011-07-27 06:14:13 51°20.112 2°48.132 20.7619 0.056179 0.310935 -3.020363
2011-07-27 06:14:17 51°20.121 2°48.115 20.7772 0.056179 0.310935 -3.020363
2011-07-27 06:14:23 51°20.134 2°48.091 20.7793 0.056179 0.310935 -3.020363
2011-07-27 06:14:27 51°20.143 2°48.074 20.7706 0.056179 0.310935 -3.020363
2011-07-27 06:14:33 51°20.156 2°48.05 20.776 0.056179 0.310935 -3.020363
2011-07-27 06:14:37 51°20.165 2°48.033 20.7791 0.056179 0.310929 -3.020363
2011-07-27 06:14:43 51°20.177 2°48.007 20.7692 0.056179 0.310929 -3.020363
2011-07-27 06:14:48 51°20.188 2°47.987 20.7721 0.056179 0.310935 -3.020363
2011-07-27 06:14:53 51°20.199 2°47.966 20.782 0.056179 0.310935 -3.020363
2011-07-27 06:14:57 51°20.207 2°47.949 20.7729 0.056179 0.310929 -3.020363
2011-07-27 06:15:01 51°20.216 2°47.932 20.7761 0.056179 0.310929 -3.020363
2011-07-27 06:15:08 51°20.23 2°47.902 20.779 0.056179 0.310935 -3.020363
2011-07-27 06:15:13 51°20.241 2°47.881 20.7825 0.056179 0.310935 -3.020363
2011-07-27 06:15:17 51°20.25 2°47.864 20.7814 0.056179 0.310929 -3.020363
2011-07-27 06:15:23 51°20.263 2°47.839 20.783 0.056179 0.310935 -3.020363
2011-07-27 06:15:28 51°20.274 2°47.819 20.7868 0.056179 0.310935 -3.020363
2011-07-27 06:15:33 51°20.285 2°47.798 20.7826 0.056179 0.310935 -3.020363
2011-07-27 06:15:37 51°20.294 2°47.781 20.7785 0.056179 0.310935 -3.020363
2011-07-27 06:15:42 51°20.305 2°47.761 20.7791 0.056179 0.310935 -3.020363
2011-07-27 06:15:48 51°20.319 2°47.737 20.7761 0.056179 0.310929 -3.020363
2011-07-27 06:15:53 51°20.331 2°47.717 20.7882 0.056179 0.310929 -3.020363
2011-07-27 06:15:57 51°20.34 2°47.701 20.7827 0.056179 0.310929 -3.020363
2011-07-27 06:16:02 51°20.352 2°47.682 20.7882 0.056179 0.310935 -3.020363
2011-07-27 06:16:08 51°20.366 2°47.657 20.7914 0.056179 0.310935 -3.020363
2011-07-27 06:16:13 51°20.378 2°47.638 20.7827 0.056179 0.310935 -3.020363
2011-07-27 06:16:17 51°20.387 2°47.622 20.7927 0.056179 0.310935 -3.020363
2011-07-27 06:16:22 51°20.398 2°47.601 20.7994 0.056179 0.310929 -3.020363
2011-07-27 06:16:28 51°20.411 2°47.577 20.7915 0.056179 0.310935 -3.020363
2011-07-27 06:16:33 51°20.422 2°47.556 20.7891 0.056179 0.310929 -3.020363
2011-07-27 06:16:37 51°20.431 2°47.539 20.7948 0.056179 0.310929 -3.020363
2011-07-27 06:16:43 51°20.444 2°47.514 20.7909 0.056179 0.310929 -3.020363
2011-07-27 06:16:47 51°20.453 2°47.498 20.7993 0.056179 0.310929 -3.020363
2011-07-27 06:16:53 51°20.466 2°47.472 20.8028 0.056179 0.310929 -3.020363
2011-07-27 06:16:57 51°20.474 2°47.455 20.8035 0.056179 0.310929 -3.020363
2011-07-27 06:17:03 51°20.487 2°47.43 20.8045 0.056179 0.310924 -3.020363
2011-07-27 06:17:08 51°20.498 2°47.409 20.7965 0.056179 0.310924 -3.020363
2011-07-27 06:17:13 51°20.509 2°47.388 20.7997 0.056179 0.310924 -3.020363
2011-07-27 06:17:17 51°20.518 2°47.371 20.7973 0.056179 0.310929 -3.020363
2011-07-27 06:17:22 51°20.529 2°47.35 20.8062 0.056179 0.310929 -3.020363
2011-07-27 06:17:28 51°20.541 2°47.324 20.804 0.056179 0.310929 -3.020363
2011-07-27 06:17:33 51°20.552 2°47.303 20.8001 0.056179 0.310929 -3.020363
2011-07-27 06:17:37 51°20.56 2°47.285 20.8067 0.056179 0.310929 -3.020363
2011-07-27 06:17:42 51°20.571 2°47.264 20.798 0.056179 0.310929 -3.020363
2011-07-27 06:17:47 51°20.582 2°47.243 20.81 0.056179 0.310929 -3.020363
2011-07-27 06:17:53 51°20.595 2°47.217 20.8119 0.056179 0.310929 -3.020363
2011-07-27 06:17:57 51°20.604 2°47.201 20.8091 0.056179 0.310924 -3.020363
2011-07-27 06:18:02 51°20.615 2°47.18 20.8109 0.056179 0.310924 -3.020363
2011-07-27 06:18:07 51°20.627 2°47.16 20.8035 0.056179 0.310924 -3.020363
2011-07-27 06:18:13 51°20.64 2°47.135 20.8138 0.056179 0.310924 -3.020363
2011-07-27 06:18:17 51°20.649 2°47.119 20.8119 0.056179 0.310924 -3.020363
2011-07-27 06:18:23 51°20.663 2°47.095 20.8037 0.056179 0.310924 -3.020363
2011-07-27 06:18:27 51°20.673 2°47.079 20.8166 0.056179 0.310924 -3.020363
2011-07-27 06:18:33 51°20.687 2°47.054 20.8124 0.056179 0.310924 -3.020363
2011-07-27 06:18:37 51°20.696 2°47.039 20.8167 0.056179 0.310924 -3.020363
2011-07-27 06:18:43 51°20.71 2°47.014 20.8203 0.056179 0.310924 -3.020363
2011-07-27 06:18:47 51°20.719 2°46.998 20.8222 0.056179 0.310924 -3.020363
2011-07-27 06:18:53 51°20.734 2°46.974 20.8197 0.056179 0.310924 -3.020363
2011-07-27 06:18:57 51°20.743 2°46.958 20.8221 0.056179 0.310929 -3.020363
2011-07-27 06:19:03 51°20.757 2°46.934 20.8139 0.056179 0.310924 -3.020363
2011-07-27 06:19:07 51°20.766 2°46.918 20.8268 0.056179 0.310924 -3.020363
2011-07-27 06:19:13 51°20.78 2°46.894 20.826 0.056179 0.310924 -3.020363
2011-07-27 06:19:17 51°20.789 2°46.877 20.8289 0.056179 0.310929 -3.020363
2011-07-27 06:19:23 51°20.803 2°46.852 20.8291 0.056179 0.310924 -3.020363
2011-07-27 06:19:28 51°20.814 2°46.831 20.8206 0.056179 0.310929 -3.020363
2011-07-27 06:19:33 51°20.825 2°46.809 20.8332 0.056179 0.310924 -3.020363
2011-07-27 06:19:37 51°20.834 2°46.792 20.832 0.056179 0.310924 -3.020363
2011-07-27 06:19:43 51°20.846 2°46.766 20.8301 0.056179 0.310924 -3.020363
2011-07-27 06:19:48 51°20.857 2°46.744 20.8268 0.056179 0.310924 -3.020363
2011-07-27 06:19:53 51°20.867 2°46.722 20.8241 0.056179 0.310924 -3.020363
2011-07-27 06:19:57 51°20.875 2°46.703 20.8249 0.056179 0.310924 -3.020363
2011-07-27 06:20:03 51°20.888 2°46.676 20.8324 0.056179 0.310924 -3.020363
2011-07-27 06:20:08 51°20.897 2°46.652 20.8287 0.056179 0.310924 -3.020363
2011-07-27 06:20:13 51°20.907 2°46.629 20.8375 0.056179 0.310924 -3.020363
2011-07-27 06:20:17 51°20.915 2°46.61 20.8335 0.056179 0.310924 -3.020363
2011-07-27 06:20:23 51°20.926 2°46.581 20.8338 0.056179 0.310918 -3.020363
2011-07-27 06:20:28 51°20.935 2°46.558 20.825 0.056179 0.310918 -3.020363
2011-07-27 06:20:33 51°20.944 2°46.534 20.8242 0.056179 0.310918 -3.020363
2011-07-27 06:20:37 51°20.952 2°46.515 20.836 0.056179 0.310918 -3.020363
2011-07-27 06:20:42 51°20.961 2°46.492 20.8301 0.056179 0.310918 -3.020363
2011-07-27 06:20:48 51°20.973 2°46.464 20.8407 0.056179 0.310918 -3.020363
2011-07-27 06:20:53 51°20.983 2°46.441 20.8326 0.056179 0.310918 -3.020363
2011-07-27 06:20:57 51°20.991 2°46.422 20.8467 0.056179 0.310918 -3.020363
2011-07-27 06:21:02 51°21.001 2°46.4 20.8315 0.056179 0.310912 -3.020363
2011-07-27 06:21:08 51°21.013 2°46.373 20.8482 0.056179 0.310918 -3.020363
2011-07-27 06:21:13 51°21.023 2°46.35 20.8356 0.056179 0.310918 -3.020363
2011-07-27 06:21:17 51°21.031 2°46.332 20.8474 0.056179 0.310918 -3.020363
2011-07-27 06:21:23 51°21.044 2°46.305 20.8444 0.056179 0.310918 -3.020363
2011-07-27 06:21:28 51°21.055 2°46.283 20.8508 0.056179 0.310918 -3.020363
2011-07-27 06:21:33 51°21.065 2°46.261 20.8443 0.056179 0.310918 -3.020363
2011-07-27 06:21:37 51°21.074 2°46.244 20.8481 0.056179 0.310912 -3.020363
2011-07-27 06:21:43 51°21.086 2°46.217 20.844 0.056179 0.310912 -3.020363
2011-07-27 06:21:47 51°21.094 2°46.199 20.8525 0.056179 0.310918 -3.020363
2011-07-27 06:21:53 51°21.107 2°46.173 20.8446 0.056179 0.310918 -3.020363
2011-07-27 06:21:57 51°21.116 2°46.156 20.8408 0.056179 0.310918 -3.020363
2011-07-27 06:22:02 51°21.126 2°46.135 20.8484 0.056179 0.310918 -3.020363
2011-07-27 06:22:08 51°21.14 2°46.11 20.8508 0.056179 0.310912 -3.020363
2011-07-27 06:22:13 51°21.151 2°46.089 20.8521 0.056179 0.310912 -3.020363
2011-07-27 06:22:17 51°21.16 2°46.073 20.856 0.056179 0.310912 -3.020363
2011-07-27 06:22:22 51°21.171 2°46.053 20.8524 0.056179 0.310912 -3.020363
2011-07-27 06:22:27 51°21.184 2°46.034 20.8466 0.056179 0.310912 -3.020363
2011-07-27 06:22:33 51°21.198 2°46.01 20.8546 0.056179 0.310918 -3.020363
2011-07-27 06:22:37 51°21.207 2°45.996 20.857 0.056179 0.310918 -3.020363
2011-07-27 06:22:43 51°21.221 2°45.972 20.8528 0.056179 0.310918 -3.020363
2011-07-27 06:22:47 51°21.231 2°45.958 20.8646 0.056179 0.310918 -3.020363
2011-07-27 06:22:53 51°21.247 2°45.935 20.8549 0.056179 0.310918 -3.020363
2011-07-27 06:22:57 51°21.257 2°45.921 20.8663 0.056179 0.310924 -3.020363
2011-07-27 06:23:03 51°21.272 2°45.898 20.8565 0.056179 0.310918 -3.020363
2011-07-27 06:23:07 51°21.281 2°45.882 20.8593 0.056179 0.310918 -3.020363
2011-07-27 06:23:13 51°21.295 2°45.858 20.8619 0.056179 0.310918 -3.020363
2011-07-27 06:23:17 51°21.304 2°45.843 20.8596 0.056179 0.310918 -3.020363
2011-07-27 06:23:23 51°21.319 2°45.821 20.8589 0.056179 0.310912 -3.020363
2011-07-27 06:23:28 51°21.332 2°45.801 20.8663 0.056179 0.310912 -3.020363
2011-07-27 06:23:33 51°21.344 2°45.783 20.8611 0.056179 0.310912 -3.020363
2011-07-27 06:23:37 51°21.354 2°45.768 20.8695 0.056179 0.310912 -3.020363
2011-07-27 06:23:43 51°21.369 2°45.746 20.8667 0.056179 0.310907 -3.020363
2011-07-27 06:23:48 51°21.382 2°45.728 20.8587 0.056179 0.310907 -3.020363
2011-07-27 06:23:53 51°21.395 2°45.711 20.8644 0.056179 0.310907 -3.020363
2011-07-27 06:23:57 51°21.405 2°45.696 20.8705 0.056179 0.310907 -3.020363
2011-07-27 06:24:03 51°21.421 2°45.676 20.8654 0.056179 0.310912 -3.020363
2011-07-27 06:24:08 51°21.434 2°45.658 20.8671 0.056179 0.310912 -3.020363
2011-07-27 06:24:13 51°21.447 2°45.641 20.8764 0.056179 0.310912 -3.020363
2011-07-27 06:24:17 51°21.457 2°45.627 20.8662 0.056179 0.310918 -3.020363
2011-07-27 06:24:23 51°21.472 2°45.606 20.8702 0.056179 0.310912 -3.020363
2011-07-27 06:24:28 51°21.485 2°45.589 20.874 0.056179 0.310912 -3.020363
2011-07-27 06:24:33 51°21.498 2°45.571 20.8737 0.056179 0.310912 -3.020363
2011-07-27 06:24:37 51°21.508 2°45.557 20.8773 0.056179 0.310912 -3.020363
2011-07-27 06:24:42 51°21.521 2°45.54 20.8774 0.056179 0.310912 -3.020363
2011-07-27 06:24:48 51°21.536 2°45.519 20.8826 0.056179 0.310907 -3.020363
2011-07-27 06:24:53 51°21.549 2°45.502 20.8809 0.056179 0.310907 -3.020363
2011-07-27 06:24:57 51°21.559 2°45.488 20.8766 0.056179 0.310907 -3.020363
2011-07-27 06:25:02 51°21.572 2°45.47 20.8848 0.056179 0.310907 -3.020363
2011-07-27 06:25:08 51°21.588 2°45.449 20.8807 0.056179 0.310901 -3.020363
2011-07-27 06:25:13 51°21.601 2°45.432 20.8843 0.056179 0.310901 -3.020363
2011-07-27 06:25:17 51°21.612 2°45.418 20.879 0.056179 0.310907 -3.020363
2011-07-27 06:25:22 51°21.623 2°45.4 20.8909 0.056179 0.310912 -3.020363
2011-07-27 06:25:27 51°21.637 2°45.383 20.8812 0.056179 0.310907 -3.020363
2011-07-27 06:25:33 51°21.652 2°45.361 20.8914 0.056179 0.310912 -3.020363
2011-07-27 06:25:37 51°21.662 2°45.347 20.8917 0.056179 0.310912 -3.020363
2011-07-27 06:25:43 51°21.677 2°45.324 20.8928 0.056179 0.310912 -3.020363
2011-07-27 06:25:47 51°21.687 2°45.31 20.8918 0.056179 0.310907 -3.020363
2011-07-27 06:25:53 51°21.701 2°45.288 20.8883 0.056179 0.310912 -3.020363
2011-07-27 06:25:57 51°21.711 2°45.273 20.8943 0.056179 0.310912 -3.020363
2011-07-27 06:26:03 51°21.725 2°45.251 20.8802 0.056179 0.310907 -3.020363
2011-07-27 06:26:07 51°21.735 2°45.236 20.8942 0.056179 0.310907 -3.020363
2011-07-27 06:26:13 51°21.749 2°45.213 20.8923 0.056179 0.310907 -3.020363
2011-07-27 06:26:17 51°21.759 2°45.198 20.8997 0.056179 0.310907 -3.020363
2011-07-27 06:26:22 51°21.771 2°45.179 20.8959 0.056179 0.310907 -3.020363
2011-07-27 06:26:28 51°21.785 2°45.157 20.8924 0.056179 0.310907 -3.020363
2011-07-27 06:26:33 51°21.797 2°45.139 20.8996 0.056179 0.310901 -3.020363
2011-07-27 06:26:37 51°21.807 2°45.124 20.895 0.056179 0.310901 -3.020363
2011-07-27 06:26:42 51°21.819 2°45.105 20.8957 0.056179 0.310901 -3.020363
2011-07-27 06:26:48 51°21.834 2°45.084 20.8895 0.056179 0.310901 -3.020363
2011-07-27 06:26:53 51°21.847 2°45.065 20.9021 0.056179 0.310901 -3.020363
2011-07-27 06:26:57 51°21.857 2°45.051 20.9033 0.056179 0.310907 -3.020363
2011-07-27 06:27:03 51°21.872 2°45.03 20.9001 0.056179 0.310901 -3.020363
2011-07-27 06:27:07 51°21.882 2°45.016 20.9061 0.056179 0.310901 -3.020363
2011-07-27 06:27:13 51°21.897 2°44.995 20.9092 0.056179 0.310907 -3.020363
2011-07-27 06:27:17 51°21.907 2°44.981 20.9057 0.056179 0.310907 -3.020363
2011-07-27 06:27:23 51°21.923 2°44.96 20.8962 0.056179 0.310907 -3.020363
2011-07-27 06:27:28 51°21.935 2°44.943 20.9027 0.056179 0.310907 -3.020363
2011-07-27 06:27:33 51°21.948 2°44.926 20.907 0.056179 0.310907 -3.020363
2011-07-27 06:27:37 51°21.958 2°44.912 20.9104 0.056179 0.310901 -3.020363
2011-07-27 06:27:43 51°21.974 2°44.892 20.9164 0.056179 0.310901 -3.020363
2011-07-27 06:27:48 51°21.987 2°44.875 20.9136 0.056179 0.310907 -3.020363
2011-07-27 06:27:53 51°22 2°44.858 20.9147 0.056179 0.310901 -3.020363
2011-07-27 06:27:57 51°22.01 2°44.844 20.9132 0.056179 0.310901 -3.020363
2011-07-27 06:28:03 51°22.026 2°44.823 20.912 0.056179 0.310907 -3.020363
2011-07-27 06:28:08 51°22.038 2°44.805 20.9166 0.056179 0.310907 -3.020363
2011-07-27 06:28:13 51°22.05 2°44.787 20.914 0.056179 0.310907 -3.020363
2011-07-27 06:28:17 51°22.06 2°44.774 20.9169 0.056179 0.310901 -3.020363
2011-07-27 06:28:22 51°22.073 2°44.756 20.9169 0.056179 0.310901 -3.020363
2011-07-27 06:28:28 51°22.088 2°44.734 20.9128 0.056179 0.310901 -3.020363
2011-07-27 06:28:33 51°22.101 2°44.716 20.9106 0.056179 0.310901 -3.020363
2011-07-27 06:28:37 51°22.11 2°44.702 20.918 0.056179 0.310907 -3.020363
2011-07-27 06:28:42 51°22.122 2°44.683 20.9196 0.056179 0.310907 -3.020363
2011-07-27 06:28:48 51°22.137 2°44.661 20.9242 0.056179 0.310901 -3.020363
2011-07-27 06:28:53 51°22.149 2°44.642 20.9135 0.056179 0.310901 -3.020363
2011-07-27 06:28:57 51°22.158 2°44.627 20.9279 0.056179 0.310901 -3.020363
2011-07-27 06:29:02 51°22.17 2°44.608 20.9251 0.056282 0.311486 -3.020363
2011-07-27 06:29:08 51°22.184 2°44.585 20.9324 0.056179 0.310907 -3.020363
2011-07-27 06:29:13 51°22.195 2°44.566 20.9289 0.056179 0.310907 -3.020363
2011-07-27 06:29:17 51°22.205 2°44.55 20.9212 0.056179 0.310901 -3.020363
2011-07-27 06:29:22 51°22.216 2°44.531 20.9321 0.056179 0.310901 -3.020363
2011-07-27 06:29:27 51°22.228 2°44.511 20.9317 0.056179 0.310901 -3.020363
2011-07-27 06:29:33 51°22.242 2°44.489 20.9336 0.056179 0.310901 -3.020363
2011-07-27 06:29:37 51°22.251 2°44.473 20.9374 0.056179 0.310901 -3.020363
2011-07-27 06:29:42 51°22.263 2°44.454 20.9314 0.056179 0.310901 -3.020363
2011-07-27 06:29:47 51°22.275 2°44.436 20.9249 0.056179 0.310896 -3.020363
2011-07-27 06:29:53 51°22.29 2°44.414 20.9367 0.056179 0.310901 -3.020363
2011-07-27 06:29:57 51°22.299 2°44.399 20.9307 0.056179 0.310896 -3.020363
2011-07-27 06:30:03 51°22.314 2°44.377 20.9262 0.056179 0.310896 -3.020363
2011-07-27 06:30:07 51°22.323 2°44.362 20.9349 0.056179 0.310896 -3.020363
2011-07-27 06:30:13 51°22.338 2°44.34 20.9406 0.056179 0.310896 -3.020363
2011-07-27 06:30:17 51°22.348 2°44.326 20.9311 0.056179 0.310896 -3.020363
2011-07-27 06:30:23 51°22.362 2°44.304 20.9401 0.056179 0.310896 -3.020363
2011-07-27 06:30:27 51°22.372 2°44.288 20.9371 0.056179 0.310896 -3.020363
2011-07-27 06:30:33 51°22.386 2°44.266 20.9332 0.056179 0.310896 -3.020363
2011-07-27 06:30:37 51°22.396 2°44.25 20.9477 0.056179 0.310896 -3.020363
2011-07-27 06:30:43 51°22.41 2°44.228 20.943 0.056179 0.310896 -3.020363
2011-07-27 06:30:48 51°22.422 2°44.209 20.9382 0.056179 0.31089 -3.020363
2011-07-27 06:30:53 51°22.434 2°44.19 20.9306 0.056179 0.310896 -3.020363
2011-07-27 06:30:57 51°22.443 2°44.174 20.9429 0.056179 0.31089 -3.020363
2011-07-27 06:31:01 51°22.453 2°44.159 20.9384 0.056179 0.310896 -3.020363
2011-07-27 06:31:08 51°22.47 2°44.131 20.9497 0.056179 0.31089 -3.020363
2011-07-27 06:31:13 51°22.482 2°44.112 20.9426 0.056179 0.31089 -3.020363
2011-07-27 06:31:17 51°22.491 2°44.097 20.9442 0.056179 0.310896 -3.020363
2011-07-27 06:31:23 51°22.505 2°44.073 20.9515 0.056179 0.310896 -3.020363
2011-07-27 06:31:28 51°22.517 2°44.054 20.9476 0.056179 0.310896 -3.020363
2011-07-27 06:31:33 51°22.528 2°44.034 20.9538 0.056179 0.31089 -3.020363
2011-07-27 06:31:37 51°22.538 2°44.019 20.9381 0.056179 0.31089 -3.020363
2011-07-27 06:31:42 51°22.55 2°44 20.9568 0.056179 0.31089 -3.020363
2011-07-27 06:31:48 51°22.564 2°43.977 20.9554 0.056282 0.311481 -3.020363
2011-07-27 06:31:53 51°22.576 2°43.958 20.9529 0.056179 0.310896 -3.020363
2011-07-27 06:31:57 51°22.585 2°43.944 20.9589 0.056282 0.311481 -3.020363
2011-07-27 06:32:03 51°22.599 2°43.922 20.9597 0.056179 0.310884 -3.020363
2011-07-27 06:32:08 51°22.611 2°43.905 20.9469 0.056179 0.31089 -3.020363
2011-07-27 06:32:13 51°22.623 2°43.888 20.9583 0.056179 0.31089 -3.020363
2011-07-27 06:32:17 51°22.632 2°43.875 20.953 0.056179 0.31089 -3.020363
2011-07-27 06:32:22 51°22.643 2°43.858 20.9675 0.056179 0.31089 -3.020363
2011-07-27 06:32:28 51°22.656 2°43.838 20.9624 0.056179 0.31089 -3.020363
2011-07-27 06:32:33 51°22.667 2°43.822 20.9707 0.056179 0.31089 -3.020363
2011-07-27 06:32:37 51°22.675 2°43.808 20.9557 0.056179 0.31089 -3.020363
2011-07-27 06:32:43 51°22.686 2°43.787 20.9834 0.056179 0.310896 -3.020363
2011-07-27 06:32:48 51°22.694 2°43.769 20.9701 0.056179 0.310901 -3.020363
2011-07-27 06:32:53 51°22.702 2°43.75 20.9627 0.056179 0.310896 -3.020363
2011-07-27 06:32:57 51°22.708 2°43.735 20.9626 0.056179 0.31089 -3.020363
2011-07-27 06:33:03 51°22.716 2°43.712 20.9743 0.056179 0.31089 -3.020363
2011-07-27 06:33:08 51°22.722 2°43.692 20.9668 0.056179 0.310896 -3.020363
2011-07-27 06:33:13 51°22.728 2°43.672 20.9778 0.056179 0.310896 -3.020363
2011-07-27 06:33:17 51°22.732 2°43.655 20.9776 0.056179 0.310896 -3.020363
2011-07-27 06:33:22 51°22.736 2°43.634 20.9653 0.056282 0.311481 -3.020363
2011-07-27 06:33:27 51°22.739 2°43.614 20.9803 0.056179 0.310901 -3.020363
2011-07-27 06:33:33 51°22.741 2°43.588 20.9667 0.056179 0.310901 -3.020363
2011-07-27 06:33:37 51°22.742 2°43.572 20.9752 0.056179 0.310896 -3.020363
2011-07-27 06:33:42 51°22.743 2°43.552 20.9727 0.056179 0.310896 -3.020363
2011-07-27 06:33:47 51°22.743 2°43.533 20.9673 0.056179 0.310896 -3.020363
2011-07-27 06:33:53 51°22.743 2°43.511 20.9696 0.056179 0.310896 -3.020363
2011-07-27 06:33:57 51°22.743 2°43.498 20.983 0.056179 0.31089 -3.020363
2011-07-27 06:34:03 51°22.742 2°43.478 20.9724 0.056179 0.31089 -3.020363
2011-07-27 06:34:07 51°22.742 2°43.466 20.9699 0.056179 0.31089 -3.020363
2011-07-27 06:34:13 51°22.742 2°43.448 20.9768 0.056179 0.31089 -3.020363
2011-07-27 06:34:17 51°22.741 2°43.437 20.9796 0.056179 0.310884 -3.020363
2011-07-27 06:34:23 51°22.741 2°43.419 20.983 0.056179 0.310884 -3.020363
2011-07-27 06:34:27 51°22.741 2°43.409 20.9835 0.056282 0.31147 -3.020363
2011-07-27 06:34:33 51°22.741 2°43.392 20.9716 0.056282 0.31147 -3.020363
2011-07-27 06:34:37 51°22.742 2°43.382 20.9817 0.056282 0.31147 -3.020363
2011-07-27 06:34:43 51°22.742 2°43.368 20.9731 0.056282 0.31147 -3.020363
2011-07-27 06:34:47 51°22.741 2°43.361 20.9794 0.056179 0.310884 -3.020363
2011-07-27 06:34:53 51°22.741 2°43.351 20.9784 0.056179 0.310884 -3.020363
2011-07-27 06:34:57 51°22.741 2°43.346 20.9874 0.056179 0.31089 -3.020363
2011-07-27 06:35:03 51°22.74 2°43.339 20.9935 0.056179 0.31089 -3.020363
2011-07-27 06:35:08 51°22.739 2°43.335 20.9958 0.056179 0.31089 -3.020363
2011-07-27 06:35:13 51°22.738 2°43.332 20.9851 0.056179 0.31089 -3.020363
2011-07-27 06:35:17 51°22.737 2°43.331 20.9901 0.056282 0.311475 -3.020363
2011-07-27 06:35:23 51°22.734 2°43.329 20.9956 0.056282 0.31147 -3.020363
2011-07-27 06:35:28 51°22.733 2°43.329 21.0003 0.056179 0.310884 -3.020363
2011-07-27 06:35:33 51°22.731 2°43.33 21.0031 0.056179 0.310884 -3.020363
2011-07-27 06:35:37 51°22.729 2°43.331 20.9971 0.056179 0.310884 -3.020363
2011-07-27 06:35:43 51°22.726 2°43.332 21.0019 0.056179 0.310884 -3.020363
2011-07-27 06:35:49 51°22.724 2°43.335 20.9996 0.056282 0.31147 -3.020363
2011-07-27 06:35:54 51°22.722 2°43.336 21.003 0.056179 0.310884 -3.020363
2011-07-27 06:36:00 51°22.72 2°43.337 21.0021 0.056179 0.31089 -3.020363
2011-07-27 06:36:05 51°22.718 2°43.339 20.9992 0.056282 0.31147 -3.020363
2011-07-27 06:36:11 51°22.716 2°43.34 21.001 0.056282 0.31147 -3.020363
2011-07-27 06:36:16 51°22.714 2°43.341 20.9906 0.056179 0.31089 -3.020363
2011-07-27 06:36:21 51°22.713 2°43.343 20.9944 0.056179 0.310896 -3.020363
2011-07-27 06:36:26 51°22.711 2°43.344 20.9962 0.056179 0.310896 -3.020363
2011-07-27 06:36:31 51°22.71 2°43.345 20.9967 0.056282 0.311481 -3.020363
2011-07-27 06:36:36 51°22.708 2°43.346 21.0063 0.056282 0.311481 -3.020363
2011-07-27 06:36:41 51°22.706 2°43.347 21.0125 0.056179 0.310896 -3.020363
2011-07-27 06:36:46 51°22.705 2°43.348 21.0032 0.056179 0.310896 -3.020363
2011-07-27 06:36:51 51°22.704 2°43.349 21.0108 0.056282 0.311481 -3.020363
2011-07-27 06:36:56 51°22.702 2°43.35 21.0139 0.056179 0.310896 -3.020363
2011-07-27 06:37:01 51°22.701 2°43.351 21.0111 0.056179 0.310896 -3.020363
2011-07-27 06:37:05 51°22.699 2°43.352 21.0096 0.056282 0.311486 -3.020363
2011-07-27 06:37:10 51°22.698 2°43.353 21.006 0.056179 0.310896 -3.020363
2011-07-27 06:37:15 51°22.696 2°43.353 21.0047 0.056179 0.310896 -3.020363
2011-07-27 06:37:20 51°22.695 2°43.355 21.0045 0.056282 0.311481 -3.020363
2011-07-27 06:37:25 51°22.694 2°43.356 21.0085 0.056179 0.31089 -3.020363
2011-07-27 06:37:29 51°22.693 2°43.357 21.013 0.056179 0.310896 -3.020363
2011-07-27 06:37:34 51°22.692 2°43.359 21.0135 0.056179 0.310896 -3.020363
2011-07-27 06:37:39 51°22.691 2°43.36 21.0148 0.056179 0.310896 -3.020363
2011-07-27 06:37:44 51°22.689 2°43.362 21.0174 0.056179 0.310896 -3.020363
2011-07-27 06:37:49 51°22.688 2°43.363 21.0183 0.056179 0.310896 -3.020363
2011-07-27 06:37:54 51°22.687 2°43.364 21.0148 0.056179 0.310896 -3.020363
2011-07-27 06:37:58 51°22.686 2°43.365 21.0121 0.056282 0.311486 -3.020363
2011-07-27 06:38:04 51°22.685 2°43.366 21.0036 0.056179 0.310896 -3.020363
2011-07-27 06:38:09 51°22.683 2°43.367 21.0196 0.056179 0.310896 -3.020363
2011-07-27 06:38:14 51°22.683 2°43.367 21.0196 0.056282 0.311481 -3.020363
2011-07-27 06:38:20 51°22.68 2°43.368 21.0129 0.056282 0.311481 -3.020363
2011-07-27 06:38:25 51°22.679 2°43.369 21.0227 0.056282 0.311486 -3.020363
2011-07-27 06:38:31 51°22.677 2°43.369 21.026 0.056282 0.311492 -3.020363
2011-07-27 06:38:36 51°22.676 2°43.369 21.0323 0.056282 0.311492 -3.020363
2011-07-27 06:38:41 51°22.675 2°43.369 21.0323 0.056282 0.311492 -3.020363
2011-07-27 06:38:45 51°22.674 2°43.369 21.0202 0.056282 0.311492 -3.020363
2011-07-27 06:38:51 51°22.672 2°43.369 21.0251 0.056282 0.311492 -3.020363
2011-07-27 06:38:56 51°22.671 2°43.368 21.0269 0.056179 0.310907 -3.020363
2011-07-27 06:39:01 51°22.67 2°43.368 21.0268 0.056282 0.311492 -3.020363
2011-07-27 06:39:06 51°22.668 2°43.367 21.0273 0.056179 0.310907 -3.020363
2011-07-27 06:39:10 51°22.666 2°43.366 21.0341 0.056179 0.310907 -3.020363
2011-07-27 06:39:15 51°22.664 2°43.365 21.0374 0.056179 0.310907 -3.020363
2011-07-27 06:39:20 51°22.662 2°43.362 21.0355 0.056179 0.310907 -3.020363
2011-07-27 06:39:25 51°22.66 2°43.36 21.0282 0.056179 0.310907 -3.020363
2011-07-27 06:39:30 51°22.658 2°43.357 21.0381 0.056282 0.311486 -3.020363
2011-07-27 06:39:35 51°22.655 2°43.354 21.0288 0.056282 0.311492 -3.020363
2011-07-27 06:39:40 51°22.653 2°43.35 21.032 0.056282 0.311492 -3.020363
2011-07-27 06:39:45 51°22.651 2°43.347 21.0332 0.056282 0.311492 -3.020363
2011-07-27 06:39:49 51°22.649 2°43.343 21.0304 0.056179 0.310912 -3.020363
2011-07-27 06:39:54 51°22.647 2°43.339 21.0391 0.056179 0.310912 -3.020363
2011-07-27 06:39:59 51°22.645 2°43.335 21.0356 0.056282 0.311503 -3.020363
2011-07-27 06:40:04 51°22.643 2°43.329 21.0381 0.056179 0.310924 -3.020363
2011-07-27 06:40:09 51°22.642 2°43.323 21.039 0.056179 0.310924 -3.020363
2011-07-27 06:40:13 51°22.641 2°43.317 21.0311 0.056179 0.310924 -3.020363
2011-07-27 06:40:18 51°22.64 2°43.31 21.0349 0.056179 0.310924 -3.020363
2011-07-27 06:40:23 51°22.639 2°43.302 21.0439 0.056282 0.311514 -3.020363
2011-07-27 06:40:28 51°22.639 2°43.294 21.042 0.056282 0.31152 -3.020363
2011-07-27 06:40:33 51°22.64 2°43.287 21.0465 0.056179 0.310935 -3.020363
2011-07-27 06:40:38 51°22.641 2°43.28 21.0413 0.056179 0.31094 -3.020363
2011-07-27 06:40:43 51°22.642 2°43.272 21.0443 0.056179 0.31094 -3.020363
2011-07-27 06:40:47 51°22.644 2°43.267 21.0458 0.056179 0.310946 -3.020363
2011-07-27 06:40:53 51°22.647 2°43.259 21.0484 0.056179 0.310951 -3.020363
2011-07-27 06:40:57 51°22.649 2°43.254 21.0504 0.056179 0.310951 -3.020363
2011-07-27 06:41:03 51°22.653 2°43.248 21.0426 0.056179 0.310951 -3.020363
2011-07-27 06:41:07 51°22.655 2°43.245 21.0392 0.056179 0.310957 -3.020363
2011-07-27 06:41:13 51°22.659 2°43.241 21.0477 0.056179 0.310957 -3.020363
2011-07-27 06:41:17 51°22.662 2°43.239 21.0534 0.056179 0.310957 -3.020363
2011-07-27 06:41:23 51°22.666 2°43.236 21.0573 0.056179 0.310951 -3.020363
2011-07-27 06:41:28 51°22.67 2°43.234 21.0549 0.056179 0.310957 -3.020363
2011-07-27 06:41:33 51°22.673 2°43.234 21.0656 0.056179 0.310951 -3.020363
2011-07-27 06:41:37 51°22.676 2°43.234 21.0739 0.056179 0.310951 -3.020363
2011-07-27 06:41:43 51°22.679 2°43.235 21.0661 0.056282 0.311542 -3.020363
2011-07-27 06:41:48 51°22.682 2°43.237 21.0558 0.056179 0.310951 -3.020363
2011-07-27 06:41:53 51°22.685 2°43.239 21.0619 0.056282 0.311537 -3.020363
2011-07-27 06:41:57 51°22.687 2°43.241 21.0604 0.056179 0.310951 -3.020363
2011-07-27 06:42:03 51°22.69 2°43.245 21.0581 0.056282 0.311537 -3.020363
2011-07-27 06:42:08 51°22.693 2°43.248 21.0726 0.056282 0.311537 -3.020363
2011-07-27 06:42:13 51°22.696 2°43.253 21.0585 0.056282 0.311537 -3.020363
2011-07-27 06:42:17 51°22.698 2°43.256 21.0708 0.056179 0.310951 -3.020363
2011-07-27 06:42:23 51°22.702 2°43.261 21.0709 0.056179 0.310957 -3.020363
2011-07-27 06:42:28 51°22.705 2°43.266 21.0772 0.056179 0.310963 -3.020363
2011-07-27 06:42:33 51°22.708 2°43.27 21.0821 0.056179 0.310963 -3.020363
2011-07-27 06:42:37 51°22.71 2°43.274 21.0793 0.056179 0.310968 -3.020363
2011-07-27 06:42:42 51°22.713 2°43.277 21.0819 0.056179 0.310968 -3.020363
2011-07-27 06:42:48 51°22.716 2°43.281 21.0807 0.056179 0.310968 -3.020363
2011-07-27 06:42:53 51°22.719 2°43.284 21.081 0.056282 0.311554 -3.020363
2011-07-27 06:42:57 51°22.721 2°43.286 21.0775 0.056179 0.310968 -3.020363
2011-07-27 06:43:02 51°22.723 2°43.289 21.082 0.056179 0.310968 -3.020363
2011-07-27 06:43:08 51°22.726 2°43.291 21.0684 0.056282 0.311554 -3.020363
2011-07-27 06:43:13 51°22.727 2°43.293 21.076 0.056282 0.311554 -3.020363
2011-07-27 06:43:17 51°22.728 2°43.293 21.0666 0.056179 0.310968 -3.020363
2011-07-27 06:43:22 51°22.729 2°43.295 21.0721 0.056179 0.310968 -3.020363
2011-07-27 06:43:28 51°22.73 2°43.296 21.076 0.056179 0.310974 -3.020363
2011-07-27 06:43:33 51°22.73 2°43.297 21.0869 0.056282 0.311554 -3.020363
2011-07-27 06:43:37 51°22.729 2°43.297 21.089 0.056179 0.310974 -3.020363
2011-07-27 06:43:43 51°22.729 2°43.297 21.0894 0.056179 0.310974 -3.020363
2011-07-27 06:43:47 51°22.728 2°43.298 21.0924 0.056179 0.310979 -3.020363
2011-07-27 06:43:53 51°22.728 2°43.298 21.0908 0.056179 0.310974 -3.020363
2011-07-27 06:43:57 51°22.727 2°43.299 21.0925 0.056179 0.310974 -3.020363
2011-07-27 06:44:03 51°22.727 2°43.3 21.093 0.056179 0.310974 -3.020363
2011-07-27 06:44:07 51°22.726 2°43.301 21.0793 0.056282 0.311554 -3.020363
2011-07-27 06:44:13 51°22.726 2°43.303 21.0911 0.056282 0.311554 -3.020363
2011-07-27 06:44:17 51°22.726 2°43.304 21.0912 0.056179 0.310968 -3.020363
2011-07-27 06:44:23 51°22.726 2°43.305 21.0923 0.056179 0.310968 -3.020363
2011-07-27 06:44:28 51°22.726 2°43.307 21.0928 0.056282 0.311554 -3.020363
2011-07-27 06:44:33 51°22.725 2°43.308 21.0959 0.056179 0.310963 -3.020363
2011-07-27 06:44:37 51°22.725 2°43.308 21.0963 0.056179 0.310963 -3.020363
2011-07-27 06:44:42 51°22.724 2°43.309 21.1017 0.056179 0.310963 -3.020363
2011-07-27 06:44:48 51°22.723 2°43.31 21.1021 0.056179 0.310963 -3.020363
2011-07-27 06:44:53 51°22.723 2°43.311 21.1088 0.056179 0.310957 -3.020363
2011-07-27 06:44:57 51°22.723 2°43.313 21.0967 0.056179 0.310957 -3.020363
2011-07-27 06:45:03 51°22.722 2°43.315 21.0957 0.056179 0.310963 -3.020363
2011-07-27 06:45:07 51°22.723 2°43.317 21.0906 0.056179 0.310963 -3.020363
2011-07-27 06:45:13 51°22.723 2°43.32 21.1063 0.056179 0.310957 -3.020363
2011-07-27 06:45:17 51°22.724 2°43.322 21.1068 0.056179 0.310957 -3.020363
2011-07-27 06:45:23 51°22.724 2°43.324 21.1065 0.056179 0.310957 -3.020363
2011-07-27 06:45:27 51°22.724 2°43.326 21.0974 0.056179 0.310951 -3.020363
2011-07-27 06:45:33 51°22.724 2°43.328 21.1082 0.056179 0.310957 -3.020363
2011-07-27 06:45:37 51°22.724 2°43.329 21.1071 0.056179 0.310957 -3.020363
2011-07-27 06:45:43 51°22.723 2°43.33 21.1067 0.056179 0.310957 -3.020363
2011-07-27 06:45:48 51°22.722 2°43.332 21.1125 0.056179 0.310951 -3.020363
2011-07-27 06:45:53 51°22.722 2°43.333 21.1004 0.056179 0.310951 -3.020363
2011-07-27 06:45:57 51°22.721 2°43.334 21.0972 0.056282 0.311542 -3.020363
2011-07-27 06:46:03 51°22.72 2°43.336 21.1099 0.056179 0.310951 -3.020363
2011-07-27 06:46:08 51°22.719 2°43.336 21.118 0.056179 0.310946 -3.020363
2011-07-27 06:46:13 51°22.718 2°43.337 21.1218 0.056179 0.310946 -3.020363
2011-07-27 06:46:17 51°22.717 2°43.339 21.1133 0.056282 0.311531 -3.020363
2011-07-27 06:46:23 51°22.716 2°43.34 21.1072 0.056282 0.31152 -3.020363
2011-07-27 06:46:28 51°22.715 2°43.341 21.1139 0.056179 0.310935 -3.020363
2011-07-27 06:46:33 51°22.714 2°43.342 21.1076 0.056282 0.31152 -3.020363
2011-07-27 06:46:37 51°22.713 2°43.342 21.1227 0.056282 0.31152 -3.020363
2011-07-27 06:46:42 51°22.712 2°43.344 21.1095 0.056282 0.31152 -3.020363
2011-07-27 06:46:48 51°22.712 2°43.346 21.1165 0.056179 0.310929 -3.020363
2011-07-27 06:46:53 51°22.711 2°43.348 21.1122 0.056282 0.311514 -3.020363
2011-07-27 06:46:57 51°22.71 2°43.349 21.1203 0.056282 0.311509 -3.020363
2011-07-27 06:47:02 51°22.71 2°43.351 21.1238 0.056179 0.310924 -3.020363
2011-07-27 06:47:08 51°22.709 2°43.353 21.1229 0.056179 0.310924 -3.020363
2011-07-27 06:47:13 51°22.708 2°43.355 21.1231 0.056282 0.311503 -3.020363
2011-07-27 06:47:17 51°22.707 2°43.356 21.1132 0.056282 0.311498 -3.020363
2011-07-27 06:47:22 51°22.706 2°43.357 21.1255 0.056282 0.311498 -3.020363
2011-07-27 06:47:27 51°22.705 2°43.358 21.1297 0.056282 0.311492 -3.020363
2011-07-27 06:47:33 51°22.704 2°43.359 21.1319 0.056282 0.311486 -3.020363
2011-07-27 06:47:37 51°22.703 2°43.36 21.1278 0.056179 0.310901 -3.020363
2011-07-27 06:47:42 51°22.703 2°43.361 21.1287 0.056179 0.310901 -3.020363
2011-07-27 06:47:47 51°22.701 2°43.362 21.1242 0.056179 0.310901 -3.020363
2011-07-27 06:47:53 51°22.701 2°43.363 21.127 0.056282 0.311481 -3.020363
2011-07-27 06:47:57 51°22.7 2°43.364 21.1211 0.056282 0.311481 -3.020363
2011-07-27 06:48:02 51°22.699 2°43.365 21.1227 0.056282 0.311475 -3.020363
2011-07-27 06:48:08 51°22.698 2°43.366 21.1379 0.056282 0.311475 -3.020363
2011-07-27 06:48:13 51°22.697 2°43.367 21.1306 0.056282 0.311475 -3.020363
2011-07-27 06:48:17 51°22.696 2°43.367 21.1269 0.056282 0.31147 -3.020363
2011-07-27 06:48:22 51°22.695 2°43.368 21.1296 0.056282 0.311464 -3.020363
2011-07-27 06:48:27 51°22.694 2°43.369 21.1305 0.056282 0.311464 -3.020363
2011-07-27 06:48:33 51°22.692 2°43.37 21.135 0.056282 0.311458 -3.020363
2011-07-27 06:48:37 51°22.691 2°43.37 21.1323 0.056282 0.311453 -3.020363
2011-07-27 06:48:42 51°22.69 2°43.371 21.1396 0.056282 0.311453 -3.020363
2011-07-27 06:48:48 51°22.688 2°43.371 21.1323 0.056179 0.310862 -3.020363
2011-07-27 06:48:53 51°22.687 2°43.372 21.1342 0.056282 0.311442 -3.020363
2011-07-27 06:48:57 51°22.686 2°43.372 21.1308 0.056282 0.311442 -3.020363
2011-07-27 06:49:03 51°22.685 2°43.373 21.1424 0.056282 0.311436 -3.020363
2011-07-27 06:49:08 51°22.683 2°43.373 21.1353 0.056282 0.311436 -3.020363
2011-07-27 06:49:13 51°22.682 2°43.374 21.1473 0.056282 0.311436 -3.020363
2011-07-27 06:49:17 51°22.681 2°43.374 21.1449 0.056282 0.31143 -3.020363
2011-07-27 06:49:22 51°22.679 2°43.374 21.1516 0.056282 0.311425 -3.020363
2011-07-27 06:49:28 51°22.678 2°43.375 21.136 0.056282 0.311425 -3.020363
2011-07-27 06:49:33 51°22.676 2°43.375 21.1354 0.056282 0.311419 -3.020363
2011-07-27 06:49:37 51°22.675 2°43.375 21.1526 0.056282 0.311414 -3.020363
2011-07-27 06:49:42 51°22.674 2°43.376 21.1546 0.056282 0.311414 -3.020363
2011-07-27 06:49:48 51°22.672 2°43.376 21.1568 0.056282 0.311408 -3.020363
2011-07-27 06:49:53 51°22.67 2°43.376 21.1517 0.056282 0.311408 -3.020363
2011-07-27 06:49:57 51°22.669 2°43.376 21.1546 0.056282 0.311402 -3.020363
2011-07-27 06:50:02 51°22.668 2°43.376 21.1505 0.056282 0.311391 -3.020363
2011-07-27 06:50:07 51°22.666 2°43.376 21.1545 0.056282 0.311391 -3.020363
2011-07-27 06:50:13 51°22.664 2°43.376 21.1589 0.056282 0.311391 -3.020363
2011-07-27 06:50:17 51°22.663 2°43.376 21.1603 0.056282 0.311386 -3.020363